GEFSMW_prec_meanprecacc_102.txt.gz
Total_Precipitation_Accumulation
0.58 0.66 0.70 0.91 1.08 1.18 1.30 1.38 1.48 1.54 1.66 1.68 1.66 1.61 1.42 1.17 0.98 0.87 0.80 0.70 0.63 0.60 0.47 0.32 0.29 0.27 0.24 0.21 0.18 0.16 0.13 0.11 0.11 0.09 0.04 0.02 0.02 0.01 0.01 0.01 0.01 0.01 0.02
0.47 0.54 0.58 0.68 0.83 0.97 1.18 1.32 1.41 1.54 1.55 1.55 1.66 1.77 1.81 1.61 1.31 1.16 1.02 0.88 0.79 0.75 0.65 0.52 0.41 0.35 0.32 0.31 0.28 0.25 0.23 0.20 0.21 0.19 0.17 0.08 0.03 0.01 0.01 0.01 0.02 0.02 0.02
0.34 0.40 0.46 0.58 0.71 0.81 1.01 1.25 1.40 1.54 1.57 1.61 1.82 1.95 2.05 1.85 1.53 1.19 1.03 1.00 0.99 0.96 0.85 0.76 0.68 0.56 0.47 0.40 0.37 0.35 0.33 0.29 0.27 0.27 0.27 0.18 0.08 0.04 0.02 0.01 0.02 0.02 0.03
0.28 0.31 0.36 0.46 0.57 0.67 0.84 1.01 1.20 1.40 1.57 1.62 1.65 1.66 1.70 1.65 1.44 1.32 1.23 1.23 1.21 1.17 1.08 1.00 0.93 0.81 0.68 0.55 0.50 0.47 0.43 0.39 0.34 0.31 0.26 0.24 0.18 0.16 0.09 0.03 0.04 0.04 0.04
0.27 0.28 0.34 0.43 0.48 0.58 0.78 0.91 1.02 1.21 1.43 1.54 1.59 1.67 1.60 1.58 1.63 1.59 1.48 1.36 1.28 1.24 1.18 1.12 1.08 0.97 0.85 0.76 0.70 0.65 0.59 0.50 0.44 0.38 0.33 0.33 0.26 0.20 0.20 0.12 0.07 0.07 0.07
0.32 0.35 0.38 0.41 0.43 0.45 0.61 0.82 0.87 1.00 1.16 1.37 1.53 1.58 1.52 1.54 1.54 1.53 1.48 1.42 1.37 1.33 1.22 1.14 1.09 1.02 0.97 0.92 0.86 0.83 0.76 0.68 0.60 0.53 0.46 0.43 0.38 0.30 0.29 0.27 0.17 0.14 0.11
0.35 0.37 0.38 0.37 0.38 0.38 0.45 0.59 0.72 0.84 0.91 1.09 1.23 1.36 1.44 1.46 1.48 1.49 1.41 1.32 1.26 1.21 1.18 1.14 1.09 1.05 1.00 0.97 0.94 0.90 0.84 0.79 0.72 0.62 0.56 0.54 0.50 0.44 0.41 0.39 0.28 0.20 0.14
0.29 0.31 0.35 0.40 0.42 0.39 0.42 0.46 0.52 0.62 0.68 0.77 0.88 0.99 1.14 1.22 1.20 1.24 1.26 1.23 1.17 1.17 1.20 1.18 1.17 1.18 1.16 1.09 1.04 0.99 0.94 0.90 0.81 0.71 0.63 0.57 0.52 0.49 0.48 0.47 0.46 0.40 0.28
0.33 0.33 0.37 0.39 0.42 0.43 0.45 0.45 0.47 0.52 0.59 0.61 0.66 0.69 0.80 0.92 0.98 0.99 1.01 1.02 1.03 1.07 1.10 1.12 1.12 1.10 1.10 1.08 1.06 1.01 0.95 0.92 0.86 0.79 0.73 0.63 0.53 0.49 0.48 0.49 0.54 0.62 0.57
0.34 0.34 0.37 0.38 0.40 0.42 0.45 0.42 0.42 0.44 0.53 0.57 0.61 0.61 0.63 0.70 0.82 0.88 0.83 0.85 0.87 0.91 0.95 0.96 0.97 0.98 0.96 0.95 0.95 0.91 0.87 0.85 0.80 0.76 0.74 0.70 0.62 0.57 0.54 0.56 0.61 0.68 0.75
0.36 0.35 0.36 0.39 0.43 0.46 0.44 0.40 0.42 0.43 0.46 0.49 0.49 0.49 0.54 0.59 0.65 0.71 0.73 0.73 0.77 0.77 0.78 0.79 0.80 0.81 0.84 0.85 0.85 0.79 0.75 0.76 0.74 0.71 0.69 0.69 0.65 0.63 0.61 0.63 0.67 0.74 0.80
0.33 0.31 0.31 0.35 0.40 0.41 0.37 0.36 0.41 0.41 0.43 0.44 0.42 0.43 0.46 0.51 0.53 0.56 0.60 0.62 0.66 0.68 0.69 0.70 0.70 0.65 0.64 0.68 0.70 0.71 0.68 0.65 0.65 0.66 0.69 0.70 0.68 0.68 0.65 0.66 0.68 0.72 0.74
0.22 0.22 0.22 0.22 0.24 0.26 0.25 0.29 0.32 0.30 0.32 0.33 0.32 0.33 0.36 0.41 0.46 0.48 0.49 0.52 0.56 0.59 0.61 0.60 0.62 0.62 0.59 0.58 0.59 0.59 0.60 0.60 0.59 0.59 0.60 0.60 0.61 0.63 0.61 0.61 0.62 0.62 0.61
0.17 0.18 0.18 0.15 0.16 0.19 0.21 0.23 0.22 0.22 0.25 0.26 0.25 0.27 0.31 0.34 0.36 0.38 0.38 0.39 0.42 0.46 0.49 0.50 0.50 0.51 0.53 0.53 0.53 0.56 0.56 0.56 0.55 0.55 0.56 0.57 0.58 0.60 0.61 0.62 0.61 0.59 0.56
0.11 0.13 0.14 0.13 0.15 0.16 0.17 0.18 0.20 0.24 0.28 0.29 0.28 0.27 0.27 0.28 0.29 0.30 0.30 0.30 0.30 0.31 0.33 0.37 0.41 0.44 0.44 0.46 0.48 0.50 0.53 0.54 0.55 0.58 0.62 0.65 0.71 0.71 0.66 0.59 0.54 0.50 0.49
0.07 0.07 0.08 0.09 0.10 0.12 0.16 0.20 0.23 0.30 0.34 0.36 0.31 0.28 0.27 0.26 0.23 0.22 0.22 0.22 0.23 0.24 0.27 0.31 0.33 0.38 0.44 0.55 0.53 0.48 0.49 0.55 0.58 0.59 0.60 0.62 0.67 0.64 0.62 0.56 0.50 0.47 0.48
0.05 0.05 0.05 0.06 0.08 0.12 0.19 0.27 0.32 0.39 0.40 0.43 0.38 0.33 0.29 0.27 0.24 0.22 0.23 0.25 0.27 0.29 0.31 0.33 0.36 0.40 0.52 0.65 0.62 0.63 0.55 0.55 0.57 0.56 0.52 0.46 0.42 0.42 0.37 0.40 0.43 0.43 0.40
0.03 0.03 0.04 0.04 0.05 0.10 0.19 0.28 0.34 0.45 0.47 0.46 0.45 0.43 0.43 0.43 0.44 0.43 0.44 0.45 0.44 0.45 0.49 0.53 0.56 0.58 0.65 0.71 0.63 0.58 0.53 0.54 0.53 0.48 0.43 0.36 0.29 0.24 0.23 0.27 0.31 0.24 0.19
0.02 0.02 0.02 0.03 0.04 0.07 0.13 0.22 0.34 0.48 0.59 0.64 0.62 0.62 0.65 0.69 0.73 0.74 0.73 0.73 0.75 0.75 0.73 0.70 0.65 0.61 0.61 0.59 0.54 0.49 0.44 0.44 0.42 0.37 0.33 0.30 0.25 0.26 0.27 0.23 0.19 0.15 0.13
0.07 0.05 0.05 0.06 0.09 0.12 0.18 0.30 0.46 0.60 0.70 0.72 0.75 0.78 0.83 0.89 0.86 0.84 0.80 0.72 0.68 0.67 0.66 0.64 0.61 0.54 0.47 0.41 0.35 0.33 0.30 0.29 0.27 0.25 0.24 0.25 0.24 0.28 0.29 0.21 0.16 0.13 0.10
0.17 0.17 0.18 0.20 0.22 0.25 0.34 0.47 0.58 0.66 0.69 0.69 0.70 0.71 0.69 0.69 0.67 0.65 0.60 0.55 0.49 0.44 0.39 0.36 0.33 0.29 0.26 0.24 0.22 0.21 0.19 0.19 0.20 0.20 0.19 0.19 0.25 0.26 0.25 0.22 0.16 0.15 0.16
0.22 0.29 0.34 0.37 0.37 0.40 0.46 0.52 0.54 0.54 0.52 0.49 0.47 0.43 0.38 0.33 0.31 0.32 0.31 0.29 0.27 0.23 0.20 0.17 0.15 0.14 0.12 0.14 0.16 0.18 0.19 0.19 0.17 0.16 0.16 0.17 0.24 0.27 0.26 0.22 0.19 0.20 0.19
0.09 0.14 0.20 0.24 0.25 0.25 0.27 0.29 0.26 0.23 0.19 0.16 0.14 0.13 0.10 0.09 0.08 0.08 0.08 0.10 0.11 0.12 0.11 0.11 0.11 0.11 0.10 0.12 0.15 0.18 0.22 0.24 0.22 0.18 0.19 0.20 0.22 0.23 0.22 0.22 0.23 0.21 0.16
0.03 0.04 0.06 0.07 0.07 0.08 0.08 0.09 0.07 0.05 0.04 0.03 0.03 0.03 0.03 0.03 0.03 0.04 0.04 0.05 0.07 0.08 0.10 0.10 0.10 0.11 0.11 0.12 0.14 0.17 0.22 0.26 0.26 0.24 0.23 0.23 0.22 0.22 0.20 0.20 0.20 0.18 0.15
0.03 0.04 0.04 0.04 0.04 0.04 0.05 0.05 0.05 0.04 0.04 0.03 0.03 0.03 0.03 0.04 0.04 0.04 0.04 0.06 0.06 0.08 0.11 0.12 0.12 0.14 0.14 0.14 0.19 0.24 0.25 0.27 0.29 0.29 0.26 0.24 0.21 0.19 0.17 0.16 0.17 0.16 0.14
0.04 0.04 0.04 0.05 0.06 0.06 0.07 0.07 0.08 0.08 0.07 0.07 0.06 0.07 0.07 0.07 0.07 0.07 0.07 0.09 0.10 0.12 0.14 0.14 0.15 0.15 0.17 0.20 0.25 0.29 0.30 0.33 0.37 0.38 0.30 0.23 0.19 0.17 0.16 0.16 0.16 0.15 0.14

GEFSMW_prec_meanprecacc_108.txt.gz
Total_Precipitation_Accumulation
0.61 0.69 0.73 0.94 1.12 1.21 1.32 1.41 1.50 1.56 1.69 1.71 1.68 1.65 1.48 1.27 1.10 0.99 0.89 0.79 0.73 0.70 0.58 0.46 0.44 0.42 0.38 0.33 0.29 0.26 0.22 0.16 0.14 0.11 0.06 0.03 0.02 0.01 0.01 0.01 0.01 0.01 0.02
0.50 0.59 0.63 0.71 0.87 1.02 1.22 1.35 1.44 1.57 1.58 1.58 1.69 1.80 1.86 1.67 1.41 1.26 1.12 0.98 0.92 0.87 0.77 0.65 0.56 0.50 0.49 0.46 0.42 0.38 0.35 0.30 0.28 0.24 0.21 0.11 0.04 0.02 0.01 0.02 0.02 0.02 0.03
0.37 0.43 0.50 0.63 0.75 0.85 1.06 1.30 1.43 1.57 1.60 1.64 1.85 1.99 2.09 1.91 1.61 1.28 1.11 1.08 1.10 1.09 0.97 0.89 0.83 0.72 0.63 0.55 0.51 0.49 0.46 0.40 0.36 0.33 0.34 0.23 0.10 0.04 0.02 0.02 0.02 0.03 0.03
0.31 0.34 0.39 0.49 0.61 0.72 0.88 1.05 1.24 1.43 1.60 1.65 1.69 1.72 1.76 1.71 1.51 1.40 1.31 1.31 1.31 1.29 1.21 1.13 1.08 0.99 0.86 0.70 0.63 0.59 0.55 0.52 0.46 0.39 0.32 0.29 0.21 0.18 0.10 0.04 0.04 0.04 0.04
0.33 0.32 0.37 0.48 0.53 0.63 0.83 0.96 1.07 1.27 1.48 1.59 1.64 1.72 1.67 1.65 1.71 1.67 1.59 1.48 1.41 1.38 1.34 1.27 1.22 1.13 1.03 0.94 0.89 0.81 0.73 0.63 0.56 0.49 0.41 0.39 0.31 0.24 0.24 0.15 0.08 0.08 0.08
0.42 0.44 0.47 0.50 0.51 0.54 0.71 0.91 0.97 1.08 1.23 1.42 1.60 1.66 1.59 1.60 1.63 1.61 1.57 1.52 1.50 1.48 1.39 1.31 1.25 1.18 1.12 1.08 1.03 1.01 0.93 0.84 0.74 0.66 0.57 0.52 0.45 0.35 0.34 0.32 0.21 0.17 0.13
0.43 0.48 0.50 0.47 0.47 0.50 0.59 0.76 0.90 1.01 1.05 1.19 1.34 1.48 1.55 1.54 1.56 1.58 1.50 1.41 1.36 1.32 1.31 1.30 1.26 1.20 1.14 1.11 1.10 1.09 1.03 0.96 0.87 0.76 0.69 0.65 0.58 0.51 0.48 0.46 0.33 0.25 0.17
0.35 0.38 0.45 0.48 0.49 0.49 0.53 0.57 0.64 0.74 0.79 0.87 0.98 1.09 1.24 1.33 1.29 1.33 1.35 1.32 1.27 1.25 1.28 1.28 1.28 1.29 1.28 1.21 1.17 1.14 1.10 1.07 0.97 0.85 0.76 0.69 0.62 0.59 0.57 0.55 0.54 0.47 0.33
0.36 0.38 0.44 0.47 0.51 0.52 0.54 0.54 0.54 0.58 0.67 0.70 0.75 0.77 0.90 1.02 1.07 1.08 1.10 1.10 1.11 1.15 1.17 1.18 1.19 1.19 1.20 1.19 1.17 1.14 1.09 1.07 1.02 0.94 0.86 0.76 0.65 0.61 0.59 0.59 0.63 0.70 0.64
0.37 0.37 0.41 0.44 0.47 0.51 0.54 0.52 0.51 0.52 0.61 0.67 0.71 0.70 0.73 0.81 0.93 0.98 0.92 0.93 0.94 0.97 1.02 1.03 1.03 1.04 1.04 1.04 1.06 1.03 0.99 0.98 0.94 0.92 0.91 0.86 0.76 0.71 0.67 0.68 0.71 0.77 0.84
0.39 0.39 0.41 0.44 0.49 0.53 0.52 0.49 0.52 0.53 0.56 0.60 0.61 0.60 0.63 0.69 0.75 0.81 0.82 0.82 0.86 0.85 0.86 0.87 0.88 0.88 0.91 0.93 0.94 0.90 0.86 0.87 0.86 0.83 0.85 0.86 0.82 0.81 0.78 0.79 0.82 0.86 0.91
0.38 0.36 0.37 0.42 0.46 0.47 0.43 0.42 0.48 0.50 0.55 0.57 0.54 0.54 0.56 0.59 0.61 0.64 0.68 0.70 0.74 0.77 0.78 0.79 0.80 0.75 0.73 0.76 0.79 0.81 0.79 0.77 0.77 0.78 0.81 0.82 0.83 0.86 0.85 0.86 0.88 0.89 0.89
0.26 0.27 0.27 0.28 0.29 0.30 0.30 0.35 0.38 0.37 0.39 0.42 0.40 0.42 0.44 0.48 0.52 0.55 0.55 0.57 0.62 0.66 0.68 0.69 0.72 0.73 0.72 0.72 0.71 0.70 0.70 0.70 0.70 0.70 0.72 0.72 0.74 0.77 0.77 0.79 0.82 0.81 0.79
0.18 0.20 0.20 0.18 0.19 0.22 0.25 0.28 0.26 0.27 0.30 0.31 0.30 0.32 0.36 0.39 0.42 0.44 0.43 0.44 0.47 0.52 0.56 0.58 0.60 0.62 0.67 0.70 0.72 0.72 0.70 0.68 0.67 0.67 0.69 0.70 0.72 0.74 0.77 0.78 0.78 0.78 0.76
0.12 0.15 0.16 0.15 0.16 0.18 0.19 0.20 0.22 0.28 0.32 0.33 0.32 0.31 0.31 0.33 0.35 0.37 0.37 0.36 0.37 0.39 0.42 0.46 0.53 0.56 0.58 0.62 0.65 0.69 0.71 0.71 0.71 0.73 0.77 0.79 0.85 0.85 0.80 0.74 0.69 0.67 0.68
0.09 0.09 0.10 0.11 0.12 0.14 0.18 0.22 0.26 0.35 0.39 0.40 0.35 0.32 0.31 0.30 0.28 0.27 0.28 0.28 0.29 0.31 0.34 0.38 0.42 0.48 0.54 0.66 0.64 0.61 0.63 0.71 0.74 0.75 0.75 0.76 0.83 0.79 0.76 0.70 0.64 0.62 0.65
0.06 0.07 0.07 0.08 0.11 0.15 0.23 0.30 0.35 0.43 0.45 0.47 0.42 0.35 0.32 0.30 0.26 0.24 0.25 0.27 0.29 0.32 0.35 0.37 0.41 0.46 0.58 0.72 0.69 0.71 0.64 0.67 0.71 0.72 0.69 0.64 0.60 0.60 0.54 0.57 0.60 0.59 0.55
0.03 0.04 0.05 0.05 0.07 0.12 0.21 0.29 0.36 0.48 0.50 0.50 0.47 0.44 0.44 0.44 0.45 0.45 0.45 0.46 0.45 0.47 0.51 0.56 0.58 0.62 0.70 0.75 0.67 0.64 0.59 0.62 0.63 0.60 0.56 0.52 0.46 0.42 0.41 0.44 0.49 0.40 0.34
0.03 0.02 0.03 0.04 0.04 0.07 0.14 0.22 0.34 0.49 0.61 0.66 0.64 0.64 0.66 0.70 0.73 0.75 0.75 0.75 0.77 0.76 0.74 0.71 0.67 0.63 0.63 0.63 0.57 0.52 0.48 0.49 0.48 0.45 0.43 0.41 0.38 0.41 0.46 0.41 0.36 0.31 0.28
0.07 0.05 0.05 0.06 0.09 0.12 0.18 0.30 0.46 0.60 0.70 0.73 0.76 0.79 0.84 0.90 0.87 0.85 0.81 0.74 0.69 0.69 0.67 0.66 0.63 0.56 0.49 0.45 0.40 0.37 0.34 0.33 0.31 0.30 0.30 0.34 0.34 0.40 0.44 0.37 0.32 0.28 0.24
0.17 0.17 0.18 0.20 0.22 0.25 0.34 0.47 0.58 0.66 0.69 0.69 0.70 0.72 0.70 0.70 0.68 0.66 0.62 0.56 0.51 0.46 0.41 0.38 0.35 0.31 0.29 0.28 0.27 0.27 0.24 0.25 0.26 0.26 0.25 0.26 0.34 0.36 0.37 0.35 0.29 0.28 0.30
0.22 0.29 0.34 0.37 0.37 0.40 0.46 0.52 0.54 0.54 0.52 0.49 0.47 0.44 0.38 0.33 0.32 0.32 0.32 0.30 0.28 0.25 0.22 0.19 0.18 0.16 0.16 0.18 0.21 0.24 0.26 0.27 0.26 0.24 0.23 0.25 0.33 0.36 0.36 0.33 0.31 0.35 0.35
0.09 0.14 0.20 0.24 0.25 0.25 0.27 0.29 0.26 0.23 0.19 0.16 0.14 0.13 0.10 0.09 0.08 0.08 0.08 0.10 0.12 0.13 0.12 0.12 0.12 0.13 0.12 0.15 0.19 0.22 0.27 0.30 0.28 0.26 0.27 0.29 0.32 0.33 0.32 0.33 0.34 0.33 0.28
0.03 0.04 0.06 0.07 0.07 0.08 0.08 0.09 0.07 0.05 0.04 0.03 0.03 0.03 0.03 0.03 0.03 0.04 0.04 0.05 0.07 0.09 0.10 0.11 0.11 0.12 0.13 0.14 0.17 0.21 0.25 0.31 0.32 0.30 0.30 0.31 0.31 0.31 0.31 0.31 0.31 0.28 0.25
0.03 0.04 0.04 0.04 0.04 0.04 0.05 0.05 0.05 0.04 0.04 0.03 0.03 0.03 0.03 0.04 0.04 0.04 0.04 0.06 0.06 0.09 0.12 0.13 0.14 0.15 0.16 0.16 0.22 0.27 0.28 0.31 0.34 0.36 0.34 0.32 0.30 0.28 0.26 0.26 0.26 0.25 0.25
0.04 0.04 0.04 0.05 0.06 0.06 0.07 0.07 0.08 0.08 0.07 0.07 0.06 0.07 0.07 0.07 0.07 0.07 0.07 0.09 0.10 0.12 0.14 0.15 0.16 0.16 0.18 0.22 0.27 0.31 0.33 0.37 0.42 0.43 0.36 0.30 0.26 0.24 0.23 0.23 0.24 0.24 0.24

GEFSMW_prec_meanprecacc_114.txt.gz
Total_Precipitation_Accumulation
0.61 0.69 0.73 0.95 1.13 1.22 1.33 1.42 1.51 1.57 1.71 1.74 1.71 1.69 1.52 1.33 1.17 1.07 0.99 0.93 0.88 0.87 0.76 0.64 0.62 0.60 0.53 0.44 0.40 0.37 0.34 0.29 0.27 0.25 0.19 0.12 0.08 0.04 0.02 0.02 0.01 0.01 0.02
0.50 0.60 0.64 0.72 0.88 1.03 1.23 1.36 1.46 1.60 1.62 1.63 1.72 1.85 1.91 1.73 1.47 1.32 1.20 1.08 1.04 1.01 0.93 0.84 0.77 0.71 0.67 0.62 0.56 0.51 0.47 0.43 0.42 0.39 0.36 0.24 0.13 0.07 0.03 0.02 0.02 0.03 0.03
0.38 0.44 0.50 0.64 0.77 0.87 1.08 1.32 1.45 1.60 1.64 1.68 1.89 2.03 2.14 1.97 1.66 1.33 1.17 1.15 1.18 1.19 1.08 1.03 1.01 0.93 0.83 0.75 0.70 0.66 0.62 0.55 0.50 0.49 0.52 0.40 0.21 0.11 0.06 0.04 0.03 0.03 0.03
0.32 0.35 0.40 0.51 0.62 0.75 0.91 1.08 1.26 1.45 1.63 1.68 1.73 1.77 1.82 1.77 1.56 1.45 1.36 1.37 1.38 1.37 1.30 1.22 1.18 1.14 1.04 0.90 0.85 0.80 0.74 0.70 0.63 0.57 0.49 0.45 0.34 0.30 0.19 0.09 0.07 0.07 0.06
0.34 0.33 0.38 0.49 0.55 0.65 0.85 0.98 1.09 1.29 1.51 1.62 1.67 1.77 1.72 1.71 1.77 1.73 1.64 1.54 1.48 1.45 1.41 1.36 1.33 1.26 1.18 1.09 1.05 1.00 0.94 0.84 0.75 0.67 0.58 0.54 0.45 0.36 0.35 0.23 0.12 0.11 0.10
0.43 0.45 0.48 0.51 0.53 0.56 0.73 0.93 0.99 1.11 1.26 1.47 1.65 1.70 1.64 1.66 1.69 1.68 1.63 1.59 1.58 1.55 1.46 1.39 1.35 1.29 1.25 1.21 1.17 1.16 1.10 1.02 0.93 0.85 0.76 0.70 0.62 0.49 0.47 0.41 0.26 0.21 0.15
0.44 0.49 0.51 0.48 0.49 0.52 0.61 0.78 0.92 1.05 1.12 1.27 1.41 1.55 1.62 1.61 1.63 1.66 1.58 1.48 1.42 1.37 1.36 1.36 1.34 1.30 1.25 1.23 1.23 1.24 1.20 1.13 1.05 0.95 0.88 0.83 0.74 0.65 0.62 0.58 0.42 0.30 0.21
0.35 0.38 0.45 0.49 0.50 0.50 0.54 0.58 0.65 0.76 0.82 0.91 1.02 1.14 1.32 1.42 1.38 1.41 1.42 1.36 1.31 1.29 1.32 1.34 1.35 1.37 1.36 1.30 1.28 1.26 1.23 1.21 1.12 1.00 0.91 0.83 0.76 0.72 0.70 0.67 0.65 0.57 0.40
0.37 0.38 0.45 0.48 0.52 0.54 0.56 0.55 0.56 0.60 0.70 0.73 0.78 0.82 0.95 1.09 1.14 1.17 1.17 1.15 1.15 1.19 1.21 1.23 1.25 1.26 1.28 1.28 1.28 1.24 1.19 1.18 1.13 1.05 0.97 0.87 0.75 0.71 0.70 0.70 0.73 0.81 0.73
0.37 0.37 0.42 0.45 0.48 0.53 0.56 0.55 0.54 0.55 0.65 0.71 0.75 0.76 0.79 0.86 0.98 1.05 0.99 0.99 1.00 1.04 1.08 1.09 1.10 1.11 1.11 1.12 1.15 1.12 1.08 1.07 1.03 1.01 1.01 0.96 0.86 0.82 0.79 0.81 0.85 0.91 0.95
0.40 0.39 0.42 0.45 0.50 0.55 0.54 0.52 0.55 0.56 0.59 0.63 0.64 0.65 0.67 0.72 0.79 0.86 0.88 0.88 0.91 0.91 0.92 0.94 0.95 0.95 0.97 1.00 1.01 0.97 0.93 0.95 0.94 0.92 0.94 0.96 0.93 0.93 0.90 0.91 0.95 1.00 1.05
0.38 0.37 0.38 0.42 0.47 0.48 0.44 0.44 0.49 0.52 0.57 0.60 0.57 0.57 0.59 0.62 0.64 0.68 0.73 0.75 0.78 0.81 0.82 0.83 0.84 0.80 0.79 0.83 0.86 0.87 0.85 0.84 0.84 0.86 0.90 0.92 0.93 0.97 0.97 0.99 1.00 1.00 0.99
0.27 0.27 0.28 0.28 0.29 0.31 0.31 0.35 0.39 0.37 0.40 0.43 0.42 0.43 0.46 0.50 0.55 0.58 0.59 0.62 0.67 0.71 0.73 0.74 0.76 0.78 0.76 0.76 0.77 0.76 0.76 0.76 0.76 0.77 0.79 0.80 0.85 0.89 0.90 0.93 0.96 0.94 0.91
0.19 0.21 0.21 0.19 0.20 0.23 0.26 0.28 0.27 0.28 0.31 0.32 0.31 0.33 0.36 0.40 0.44 0.46 0.45 0.46 0.50 0.55 0.59 0.62 0.65 0.67 0.71 0.74 0.77 0.78 0.76 0.74 0.73 0.73 0.74 0.76 0.79 0.83 0.88 0.92 0.92 0.91 0.91
0.13 0.15 0.16 0.15 0.16 0.18 0.19 0.20 0.22 0.28 0.33 0.34 0.33 0.32 0.32 0.34 0.36 0.38 0.39 0.38 0.39 0.40 0.44 0.50 0.57 0.62 0.64 0.69 0.73 0.76 0.77 0.77 0.77 0.79 0.83 0.86 0.94 0.94 0.90 0.86 0.83 0.81 0.84
0.09 0.10 0.11 0.12 0.12 0.14 0.18 0.22 0.27 0.35 0.39 0.42 0.37 0.33 0.33 0.32 0.30 0.29 0.30 0.30 0.32 0.34 0.37 0.42 0.46 0.53 0.59 0.74 0.73 0.70 0.71 0.78 0.82 0.83 0.82 0.84 0.93 0.90 0.88 0.82 0.76 0.76 0.80
0.07 0.07 0.07 0.09 0.11 0.16 0.23 0.31 0.36 0.43 0.45 0.47 0.42 0.36 0.33 0.32 0.29 0.27 0.27 0.29 0.32 0.35 0.39 0.41 0.45 0.50 0.63 0.79 0.75 0.79 0.73 0.75 0.80 0.81 0.78 0.73 0.70 0.71 0.64 0.68 0.71 0.71 0.68
0.04 0.04 0.05 0.06 0.07 0.13 0.22 0.30 0.37 0.48 0.51 0.50 0.47 0.45 0.44 0.45 0.47 0.47 0.48 0.49 0.48 0.50 0.54 0.58 0.61 0.64 0.73 0.79 0.71 0.68 0.63 0.67 0.69 0.66 0.63 0.59 0.54 0.51 0.51 0.53 0.59 0.51 0.46
0.03 0.02 0.03 0.04 0.05 0.08 0.14 0.23 0.35 0.50 0.61 0.67 0.65 0.65 0.67 0.70 0.74 0.77 0.76 0.76 0.78 0.77 0.75 0.72 0.68 0.65 0.64 0.65 0.59 0.55 0.50 0.51 0.50 0.48 0.46 0.46 0.43 0.49 0.55 0.50 0.45 0.41 0.38
0.07 0.05 0.05 0.06 0.09 0.12 0.18 0.30 0.46 0.61 0.71 0.74 0.77 0.80 0.85 0.90 0.87 0.86 0.82 0.75 0.71 0.70 0.68 0.66 0.63 0.57 0.50 0.45 0.40 0.38 0.35 0.35 0.32 0.31 0.32 0.37 0.38 0.46 0.51 0.44 0.40 0.37 0.32
0.17 0.17 0.18 0.20 0.22 0.25 0.34 0.47 0.58 0.66 0.69 0.69 0.70 0.73 0.71 0.71 0.69 0.66 0.62 0.57 0.52 0.47 0.42 0.39 0.36 0.32 0.30 0.29 0.28 0.28 0.26 0.26 0.27 0.27 0.26 0.28 0.37 0.41 0.42 0.41 0.36 0.35 0.38
0.22 0.29 0.34 0.37 0.37 0.40 0.46 0.52 0.54 0.54 0.52 0.49 0.47 0.44 0.39 0.34 0.33 0.33 0.33 0.32 0.29 0.26 0.23 0.20 0.18 0.16 0.16 0.19 0.21 0.25 0.27 0.29 0.27 0.26 0.25 0.27 0.37 0.41 0.40 0.37 0.37 0.42 0.43
0.09 0.14 0.20 0.24 0.25 0.25 0.27 0.29 0.26 0.23 0.19 0.16 0.14 0.13 0.10 0.09 0.08 0.08 0.09 0.11 0.13 0.14 0.13 0.12 0.13 0.13 0.13 0.15 0.19 0.23 0.28 0.32 0.30 0.28 0.30 0.32 0.36 0.37 0.37 0.38 0.39 0.40 0.36
0.03 0.04 0.06 0.07 0.07 0.08 0.08 0.09 0.07 0.05 0.04 0.03 0.03 0.03 0.03 0.03 0.03 0.04 0.04 0.05 0.07 0.09 0.10 0.11 0.12 0.12 0.13 0.14 0.18 0.22 0.27 0.32 0.33 0.32 0.33 0.35 0.35 0.35 0.35 0.36 0.36 0.34 0.32
0.03 0.04 0.04 0.04 0.04 0.04 0.05 0.05 0.05 0.04 0.04 0.03 0.03 0.03 0.03 0.04 0.04 0.04 0.04 0.06 0.06 0.09 0.12 0.13 0.14 0.16 0.17 0.16 0.23 0.28 0.30 0.33 0.35 0.38 0.36 0.35 0.33 0.32 0.31 0.30 0.30 0.31 0.32
0.04 0.04 0.04 0.05 0.06 0.06 0.07 0.07 0.08 0.08 0.07 0.07 0.06 0.07 0.07 0.07 0.07 0.07 0.07 0.09 0.10 0.12 0.14 0.15 0.16 0.17 0.19 0.23 0.28 0.32 0.35 0.38 0.44 0.46 0.38 0.32 0.28 0.27 0.28 0.28 0.29 0.30 0.30

GEFSMW_prec_meanprecacc_120.txt.gz
Total_Precipitation_Accumulation
0.61 0.69 0.73 0.95 1.13 1.22 1.33 1.42 1.51 1.58 1.72 1.74 1.72 1.70 1.54 1.36 1.20 1.09 1.01 0.95 0.92 0.92 0.86 0.78 0.81 0.82 0.76 0.65 0.58 0.54 0.48 0.42 0.38 0.37 0.31 0.25 0.20 0.14 0.09 0.07 0.06 0.05 0.05
0.51 0.60 0.64 0.72 0.88 1.03 1.23 1.37 1.46 1.60 1.62 1.63 1.73 1.86 1.93 1.76 1.50 1.34 1.21 1.11 1.07 1.06 1.01 0.97 0.94 0.92 0.93 0.90 0.84 0.78 0.69 0.60 0.57 0.53 0.49 0.35 0.24 0.15 0.10 0.09 0.07 0.06 0.06
0.38 0.44 0.51 0.64 0.77 0.87 1.08 1.32 1.45 1.60 1.64 1.68 1.90 2.04 2.16 2.00 1.71 1.36 1.20 1.18 1.20 1.22 1.13 1.11 1.13 1.08 1.03 0.98 0.96 0.93 0.89 0.78 0.71 0.66 0.68 0.54 0.32 0.18 0.11 0.09 0.08 0.08 0.07
0.32 0.35 0.41 0.51 0.62 0.75 0.91 1.08 1.26 1.45 1.63 1.68 1.73 1.78 1.85 1.82 1.61 1.49 1.40 1.41 1.41 1.40 1.34 1.27 1.25 1.23 1.17 1.06 1.03 1.01 0.97 0.93 0.86 0.77 0.66 0.57 0.44 0.39 0.27 0.15 0.13 0.13 0.11
0.34 0.33 0.38 0.49 0.55 0.65 0.85 0.98 1.09 1.29 1.51 1.62 1.67 1.78 1.75 1.75 1.83 1.79 1.68 1.58 1.51 1.48 1.45 1.39 1.37 1.30 1.24 1.19 1.17 1.14 1.10 1.02 0.96 0.90 0.82 0.77 0.63 0.51 0.47 0.32 0.19 0.18 0.17
0.43 0.45 0.48 0.51 0.53 0.56 0.73 0.93 0.99 1.11 1.27 1.48 1.66 1.71 1.65 1.68 1.72 1.72 1.68 1.64 1.61 1.59 1.51 1.43 1.38 1.32 1.28 1.26 1.25 1.26 1.21 1.15 1.09 1.03 0.96 0.92 0.84 0.69 0.64 0.55 0.36 0.28 0.22
0.44 0.49 0.51 0.48 0.49 0.52 0.61 0.78 0.92 1.05 1.12 1.27 1.42 1.55 1.62 1.62 1.64 1.67 1.64 1.57 1.49 1.42 1.40 1.40 1.37 1.32 1.27 1.26 1.26 1.29 1.26 1.21 1.15 1.08 1.03 1.00 0.93 0.84 0.80 0.75 0.56 0.42 0.30
0.35 0.38 0.45 0.49 0.50 0.50 0.54 0.58 0.65 0.76 0.82 0.91 1.02 1.14 1.33 1.43 1.39 1.45 1.48 1.45 1.38 1.36 1.38 1.38 1.38 1.40 1.39 1.33 1.31 1.29 1.27 1.26 1.18 1.07 1.00 0.95 0.89 0.87 0.87 0.85 0.82 0.73 0.53
0.37 0.38 0.45 0.48 0.52 0.54 0.56 0.56 0.56 0.60 0.70 0.73 0.78 0.82 0.96 1.10 1.16 1.21 1.22 1.17 1.17 1.23 1.26 1.27 1.29 1.31 1.32 1.31 1.31 1.28 1.24 1.23 1.19 1.11 1.04 0.94 0.83 0.81 0.81 0.82 0.86 0.94 0.84
0.37 0.37 0.42 0.45 0.48 0.53 0.56 0.55 0.55 0.55 0.65 0.71 0.76 0.76 0.79 0.87 0.99 1.08 1.02 1.01 1.03 1.06 1.11 1.12 1.13 1.15 1.17 1.19 1.22 1.18 1.14 1.12 1.08 1.07 1.08 1.03 0.93 0.89 0.88 0.91 0.95 1.01 1.05
0.40 0.39 0.42 0.45 0.50 0.55 0.55 0.52 0.55 0.56 0.59 0.64 0.65 0.65 0.68 0.73 0.79 0.87 0.90 0.90 0.94 0.94 0.94 0.96 0.98 0.98 1.01 1.05 1.08 1.03 1.01 1.03 1.02 1.00 1.03 1.04 1.01 1.01 0.99 1.02 1.06 1.11 1.16
0.38 0.37 0.38 0.43 0.47 0.49 0.45 0.44 0.49 0.52 0.57 0.60 0.57 0.58 0.60 0.62 0.65 0.69 0.74 0.77 0.81 0.83 0.84 0.86 0.87 0.84 0.83 0.87 0.91 0.93 0.91 0.90 0.91 0.93 0.98 1.01 1.02 1.06 1.05 1.08 1.10 1.11 1.11
0.27 0.27 0.28 0.28 0.30 0.31 0.32 0.36 0.39 0.37 0.40 0.43 0.42 0.44 0.46 0.50 0.55 0.58 0.59 0.62 0.69 0.73 0.75 0.75 0.78 0.80 0.78 0.79 0.80 0.80 0.81 0.81 0.81 0.82 0.85 0.86 0.91 0.96 0.96 1.00 1.04 1.04 1.04
0.19 0.21 0.21 0.19 0.20 0.23 0.26 0.28 0.27 0.28 0.31 0.32 0.31 0.33 0.36 0.40 0.44 0.46 0.45 0.46 0.50 0.56 0.60 0.64 0.66 0.68 0.72 0.76 0.78 0.79 0.78 0.76 0.76 0.75 0.77 0.80 0.84 0.88 0.92 0.97 0.97 0.98 0.99
0.13 0.15 0.16 0.15 0.16 0.18 0.20 0.21 0.23 0.29 0.34 0.35 0.33 0.32 0.32 0.34 0.37 0.38 0.39 0.38 0.39 0.41 0.45 0.50 0.58 0.62 0.65 0.69 0.73 0.76 0.78 0.78 0.78 0.80 0.84 0.89 0.98 0.99 0.95 0.91 0.89 0.88 0.92
0.09 0.10 0.11 0.12 0.12 0.14 0.18 0.22 0.27 0.35 0.40 0.42 0.37 0.34 0.33 0.32 0.30 0.29 0.30 0.30 0.32 0.34 0.37 0.42 0.46 0.53 0.60 0.75 0.74 0.70 0.71 0.79 0.83 0.85 0.85 0.87 0.97 0.94 0.93 0.87 0.82 0.82 0.88
0.07 0.07 0.07 0.09 0.11 0.16 0.23 0.31 0.36 0.43 0.45 0.47 0.43 0.36 0.33 0.32 0.29 0.27 0.28 0.30 0.32 0.36 0.39 0.41 0.45 0.51 0.64 0.80 0.76 0.80 0.73 0.76 0.81 0.83 0.81 0.77 0.74 0.76 0.68 0.73 0.77 0.76 0.75
0.04 0.04 0.05 0.06 0.08 0.13 0.22 0.30 0.37 0.48 0.51 0.50 0.48 0.45 0.45 0.45 0.47 0.47 0.48 0.49 0.49 0.50 0.54 0.59 0.62 0.65 0.74 0.80 0.72 0.69 0.64 0.67 0.70 0.68 0.66 0.62 0.56 0.54 0.55 0.57 0.63 0.56 0.52
0.03 0.02 0.03 0.04 0.05 0.08 0.14 0.23 0.35 0.50 0.61 0.67 0.65 0.65 0.67 0.71 0.75 0.77 0.76 0.77 0.79 0.78 0.76 0.73 0.69 0.65 0.65 0.65 0.60 0.55 0.51 0.51 0.51 0.49 0.48 0.47 0.45 0.51 0.57 0.53 0.49 0.44 0.43
0.07 0.05 0.05 0.06 0.09 0.12 0.18 0.30 0.47 0.61 0.71 0.74 0.77 0.81 0.85 0.90 0.87 0.86 0.82 0.75 0.71 0.70 0.68 0.66 0.64 0.57 0.51 0.46 0.41 0.39 0.36 0.35 0.33 0.32 0.32 0.38 0.39 0.47 0.52 0.45 0.42 0.40 0.35
0.17 0.17 0.18 0.20 0.22 0.25 0.34 0.47 0.58 0.66 0.69 0.69 0.71 0.73 0.71 0.72 0.69 0.66 0.62 0.58 0.53 0.47 0.42 0.39 0.36 0.32 0.30 0.29 0.28 0.28 0.26 0.26 0.28 0.27 0.26 0.28 0.37 0.41 0.43 0.43 0.37 0.37 0.40
0.22 0.29 0.34 0.37 0.37 0.40 0.46 0.52 0.54 0.54 0.52 0.49 0.47 0.44 0.39 0.35 0.34 0.34 0.34 0.32 0.30 0.26 0.23 0.20 0.19 0.17 0.16 0.19 0.22 0.25 0.28 0.30 0.28 0.26 0.25 0.27 0.37 0.41 0.41 0.39 0.38 0.43 0.45
0.09 0.14 0.20 0.24 0.25 0.25 0.27 0.29 0.26 0.23 0.19 0.16 0.14 0.13 0.10 0.09 0.08 0.08 0.09 0.11 0.14 0.14 0.14 0.13 0.13 0.14 0.13 0.16 0.20 0.24 0.29 0.33 0.31 0.28 0.31 0.33 0.37 0.38 0.38 0.39 0.41 0.41 0.38
0.03 0.04 0.06 0.07 0.07 0.08 0.08 0.09 0.07 0.05 0.04 0.03 0.03 0.03 0.03 0.03 0.03 0.04 0.04 0.05 0.07 0.09 0.11 0.12 0.12 0.13 0.13 0.15 0.18 0.22 0.27 0.33 0.34 0.33 0.34 0.35 0.36 0.36 0.36 0.38 0.38 0.36 0.35
0.03 0.04 0.04 0.04 0.04 0.04 0.05 0.05 0.05 0.04 0.04 0.03 0.03 0.03 0.03 0.04 0.04 0.04 0.04 0.06 0.06 0.09 0.12 0.14 0.15 0.17 0.17 0.16 0.24 0.29 0.31 0.34 0.36 0.39 0.37 0.35 0.33 0.32 0.32 0.32 0.32 0.33 0.34
0.04 0.04 0.04 0.05 0.06 0.06 0.07 0.07 0.08 0.08 0.07 0.07 0.06 0.07 0.07 0.07 0.07 0.07 0.07 0.09 0.10 0.12 0.14 0.15 0.16 0.17 0.19 0.23 0.29 0.33 0.35 0.39 0.45 0.47 0.40 0.33 0.29 0.28 0.29 0.30 0.31 0.32 0.33

GEFSMW_prec_meanprecacc_126.txt.gz
Total_Precipitation_Accumulation
0.61 0.69 0.73 0.95 1.13 1.22 1.33 1.42 1.51 1.58 1.72 1.74 1.72 1.70 1.54 1.36 1.21 1.10 1.01 0.96 0.93 0.95 0.89 0.82 0.85 0.86 0.80 0.70 0.64 0.61 0.58 0.53 0.52 0.52 0.44 0.36 0.32 0.26 0.19 0.15 0.12 0.09 0.08
0.51 0.60 0.64 0.72 0.88 1.03 1.23 1.37 1.46 1.60 1.62 1.63 1.73 1.86 1.93 1.76 1.50 1.35 1.22 1.11 1.08 1.08 1.04 1.01 0.98 0.97 0.97 0.96 0.92 0.88 0.83 0.76 0.75 0.74 0.69 0.53 0.39 0.28 0.20 0.18 0.17 0.15 0.14
0.38 0.44 0.51 0.64 0.77 0.87 1.08 1.32 1.45 1.60 1.64 1.68 1.90 2.04 2.16 2.00 1.72 1.37 1.21 1.19 1.22 1.24 1.15 1.12 1.16 1.11 1.06 1.03 1.02 1.01 0.98 0.93 0.89 0.87 0.91 0.75 0.51 0.33 0.23 0.19 0.17 0.17 0.16
0.32 0.35 0.41 0.51 0.62 0.75 0.91 1.08 1.26 1.45 1.63 1.68 1.73 1.78 1.85 1.82 1.61 1.49 1.41 1.42 1.43 1.42 1.36 1.29 1.28 1.25 1.20 1.10 1.09 1.07 1.02 0.99 0.94 0.90 0.82 0.74 0.60 0.53 0.38 0.23 0.21 0.21 0.20
0.34 0.33 0.38 0.49 0.55 0.65 0.85 0.98 1.09 1.29 1.51 1.62 1.67 1.78 1.75 1.75 1.83 1.79 1.69 1.60 1.55 1.51 1.46 1.41 1.38 1.32 1.26 1.21 1.21 1.18 1.15 1.08 1.02 0.97 0.91 0.88 0.75 0.61 0.57 0.41 0.27 0.27 0.26
0.43 0.45 0.48 0.51 0.53 0.56 0.73 0.93 0.99 1.11 1.27 1.48 1.66 1.71 1.65 1.68 1.72 1.72 1.68 1.67 1.66 1.62 1.52 1.44 1.39 1.33 1.30 1.28 1.27 1.30 1.26 1.20 1.14 1.09 1.02 1.01 0.94 0.79 0.74 0.64 0.42 0.35 0.29
0.44 0.49 0.51 0.48 0.49 0.52 0.61 0.78 0.92 1.05 1.12 1.27 1.42 1.56 1.63 1.62 1.65 1.68 1.65 1.59 1.51 1.43 1.41 1.42 1.39 1.35 1.29 1.28 1.29 1.31 1.28 1.23 1.18 1.11 1.07 1.06 1.01 0.91 0.88 0.83 0.63 0.49 0.37
0.35 0.38 0.45 0.49 0.50 0.50 0.54 0.58 0.65 0.76 0.82 0.91 1.02 1.14 1.33 1.43 1.39 1.45 1.48 1.46 1.38 1.36 1.39 1.39 1.40 1.42 1.41 1.36 1.34 1.34 1.31 1.29 1.20 1.09 1.03 0.98 0.93 0.92 0.93 0.91 0.89 0.82 0.62
0.37 0.38 0.45 0.48 0.52 0.54 0.56 0.56 0.56 0.60 0.70 0.73 0.79 0.82 0.96 1.10 1.16 1.21 1.22 1.17 1.17 1.23 1.27 1.28 1.30 1.32 1.34 1.33 1.33 1.31 1.26 1.26 1.23 1.15 1.07 0.97 0.86 0.85 0.85 0.87 0.92 1.01 0.92
0.38 0.37 0.42 0.45 0.48 0.53 0.56 0.55 0.55 0.55 0.65 0.71 0.76 0.76 0.79 0.87 1.00 1.08 1.03 1.02 1.03 1.06 1.11 1.13 1.14 1.16 1.18 1.21 1.24 1.21 1.17 1.15 1.11 1.09 1.09 1.05 0.96 0.92 0.92 0.95 1.00 1.07 1.12
0.40 0.39 0.42 0.45 0.50 0.55 0.55 0.52 0.55 0.56 0.59 0.64 0.65 0.65 0.68 0.73 0.80 0.87 0.90 0.90 0.95 0.94 0.95 0.97 0.99 0.99 1.02 1.06 1.10 1.06 1.04 1.06 1.05 1.04 1.07 1.08 1.05 1.05 1.03 1.06 1.11 1.16 1.22
0.39 0.37 0.38 0.43 0.47 0.49 0.46 0.45 0.50 0.52 0.57 0.60 0.58 0.58 0.60 0.62 0.65 0.69 0.75 0.77 0.81 0.85 0.86 0.87 0.88 0.85 0.84 0.88 0.92 0.95 0.94 0.94 0.95 0.98 1.03 1.06 1.07 1.11 1.11 1.14 1.17 1.17 1.17
0.27 0.27 0.28 0.28 0.30 0.31 0.32 0.37 0.40 0.38 0.40 0.43 0.42 0.44 0.46 0.50 0.55 0.58 0.59 0.63 0.69 0.74 0.77 0.77 0.79 0.81 0.79 0.80 0.81 0.81 0.83 0.84 0.84 0.85 0.89 0.90 0.95 1.00 1.01 1.04 1.09 1.10 1.10
0.19 0.21 0.21 0.19 0.20 0.23 0.26 0.29 0.27 0.28 0.31 0.32 0.31 0.33 0.37 0.40 0.44 0.46 0.45 0.46 0.51 0.56 0.61 0.65 0.68 0.69 0.72 0.76 0.79 0.80 0.78 0.77 0.77 0.77 0.79 0.82 0.87 0.91 0.96 1.00 1.01 1.02 1.04
0.13 0.15 0.16 0.15 0.16 0.18 0.20 0.21 0.23 0.29 0.34 0.35 0.34 0.32 0.33 0.34 0.37 0.39 0.39 0.38 0.39 0.41 0.45 0.51 0.58 0.63 0.65 0.70 0.74 0.76 0.78 0.78 0.78 0.81 0.85 0.90 0.99 1.01 0.97 0.94 0.91 0.91 0.95
0.09 0.10 0.11 0.12 0.13 0.14 0.18 0.22 0.27 0.35 0.41 0.43 0.38 0.34 0.34 0.33 0.31 0.30 0.30 0.30 0.32 0.34 0.37 0.42 0.47 0.53 0.60 0.76 0.74 0.70 0.72 0.79 0.83 0.85 0.85 0.88 0.97 0.96 0.94 0.88 0.84 0.85 0.90
0.07 0.07 0.07 0.09 0.12 0.16 0.23 0.31 0.36 0.43 0.45 0.48 0.43 0.37 0.34 0.32 0.29 0.27 0.28 0.30 0.32 0.36 0.39 0.41 0.45 0.51 0.64 0.80 0.77 0.80 0.74 0.76 0.82 0.83 0.81 0.77 0.74 0.76 0.69 0.73 0.78 0.78 0.78
0.04 0.04 0.05 0.06 0.08 0.13 0.22 0.30 0.37 0.48 0.51 0.50 0.48 0.45 0.45 0.45 0.47 0.47 0.48 0.49 0.49 0.50 0.54 0.59 0.62 0.65 0.74 0.80 0.72 0.69 0.64 0.68 0.70 0.68 0.66 0.62 0.57 0.55 0.55 0.58 0.64 0.57 0.53
0.03 0.02 0.03 0.04 0.05 0.08 0.14 0.23 0.35 0.50 0.61 0.67 0.65 0.65 0.67 0.71 0.75 0.77 0.77 0.77 0.79 0.78 0.76 0.73 0.69 0.66 0.66 0.66 0.60 0.56 0.52 0.52 0.52 0.50 0.49 0.49 0.46 0.52 0.59 0.54 0.50 0.46 0.45
0.07 0.05 0.05 0.06 0.09 0.12 0.18 0.30 0.47 0.61 0.71 0.74 0.77 0.81 0.85 0.90 0.87 0.86 0.82 0.75 0.71 0.70 0.68 0.67 0.64 0.58 0.51 0.46 0.41 0.39 0.36 0.36 0.34 0.32 0.33 0.39 0.40 0.49 0.54 0.47 0.45 0.42 0.37
0.17 0.17 0.18 0.20 0.22 0.25 0.34 0.47 0.58 0.67 0.70 0.70 0.71 0.73 0.72 0.72 0.69 0.66 0.63 0.58 0.53 0.47 0.42 0.39 0.36 0.32 0.30 0.29 0.28 0.28 0.26 0.27 0.28 0.28 0.26 0.28 0.38 0.42 0.44 0.44 0.38 0.38 0.41
0.22 0.29 0.34 0.37 0.37 0.40 0.46 0.52 0.54 0.54 0.52 0.49 0.47 0.44 0.39 0.35 0.34 0.34 0.34 0.33 0.30 0.27 0.23 0.20 0.19 0.17 0.16 0.19 0.22 0.26 0.28 0.30 0.28 0.27 0.25 0.27 0.37 0.42 0.42 0.39 0.39 0.44 0.45
0.09 0.14 0.20 0.24 0.25 0.25 0.27 0.29 0.26 0.23 0.19 0.16 0.14 0.13 0.10 0.09 0.09 0.08 0.09 0.11 0.14 0.14 0.14 0.13 0.13 0.14 0.14 0.16 0.20 0.24 0.29 0.33 0.31 0.28 0.31 0.33 0.37 0.39 0.38 0.39 0.42 0.42 0.38
0.03 0.04 0.06 0.07 0.07 0.08 0.08 0.09 0.07 0.05 0.04 0.03 0.03 0.03 0.03 0.03 0.03 0.04 0.04 0.05 0.07 0.09 0.11 0.12 0.12 0.13 0.13 0.15 0.18 0.22 0.27 0.33 0.34 0.33 0.34 0.35 0.36 0.36 0.36 0.38 0.38 0.37 0.36
0.03 0.04 0.04 0.04 0.04 0.04 0.05 0.05 0.05 0.04 0.04 0.03 0.03 0.03 0.03 0.04 0.04 0.04 0.04 0.06 0.06 0.09 0.12 0.14 0.15 0.17 0.17 0.16 0.24 0.30 0.31 0.34 0.37 0.39 0.38 0.35 0.34 0.32 0.32 0.32 0.32 0.33 0.35
0.04 0.04 0.04 0.05 0.06 0.06 0.07 0.07 0.08 0.08 0.07 0.07 0.06 0.07 0.07 0.07 0.07 0.07 0.07 0.09 0.10 0.12 0.14 0.15 0.17 0.17 0.20 0.24 0.30 0.34 0.36 0.40 0.45 0.48 0.40 0.33 0.29 0.28 0.29 0.30 0.31 0.32 0.33

GEFSMW_prec_meanprecacc_132.txt.gz
Total_Precipitation_Accumulation
0.62 0.70 0.74 0.95 1.13 1.22 1.33 1.42 1.52 1.58 1.72 1.75 1.72 1.71 1.54 1.36 1.21 1.10 1.01 0.96 0.93 0.95 0.90 0.83 0.88 0.90 0.84 0.73 0.67 0.64 0.61 0.57 0.57 0.58 0.50 0.43 0.40 0.37 0.31 0.27 0.25 0.21 0.18
0.52 0.61 0.65 0.72 0.88 1.03 1.23 1.37 1.46 1.60 1.62 1.63 1.73 1.86 1.93 1.76 1.50 1.35 1.22 1.12 1.08 1.08 1.05 1.02 1.00 1.00 1.01 0.99 0.94 0.91 0.86 0.80 0.80 0.79 0.75 0.59 0.45 0.35 0.31 0.31 0.30 0.28 0.26
0.39 0.45 0.52 0.65 0.77 0.87 1.09 1.32 1.45 1.60 1.64 1.68 1.90 2.04 2.16 2.00 1.72 1.37 1.21 1.19 1.22 1.24 1.15 1.13 1.16 1.12 1.08 1.05 1.04 1.04 1.02 0.96 0.92 0.91 0.96 0.81 0.56 0.38 0.29 0.26 0.27 0.29 0.29
0.33 0.35 0.41 0.51 0.63 0.75 0.91 1.08 1.26 1.45 1.63 1.68 1.73 1.78 1.85 1.82 1.61 1.49 1.41 1.42 1.43 1.42 1.36 1.29 1.28 1.26 1.21 1.11 1.10 1.09 1.05 1.02 0.97 0.94 0.86 0.79 0.64 0.58 0.43 0.29 0.27 0.29 0.28
0.34 0.33 0.39 0.49 0.55 0.65 0.85 0.98 1.09 1.29 1.51 1.62 1.67 1.78 1.75 1.75 1.83 1.79 1.69 1.60 1.55 1.51 1.46 1.41 1.39 1.32 1.26 1.22 1.22 1.20 1.17 1.11 1.05 1.00 0.94 0.92 0.79 0.65 0.61 0.45 0.32 0.32 0.33
0.44 0.45 0.48 0.51 0.53 0.56 0.73 0.93 0.99 1.11 1.27 1.48 1.66 1.71 1.65 1.68 1.72 1.72 1.68 1.67 1.66 1.62 1.52 1.44 1.39 1.33 1.30 1.28 1.28 1.31 1.27 1.23 1.18 1.13 1.07 1.06 1.00 0.85 0.79 0.69 0.46 0.39 0.35
0.44 0.49 0.51 0.48 0.49 0.52 0.61 0.78 0.92 1.05 1.12 1.27 1.42 1.56 1.63 1.62 1.65 1.68 1.65 1.59 1.51 1.43 1.41 1.42 1.39 1.35 1.29 1.28 1.30 1.32 1.29 1.25 1.21 1.14 1.11 1.10 1.06 0.97 0.94 0.88 0.68 0.53 0.41
0.35 0.38 0.46 0.49 0.50 0.50 0.54 0.58 0.65 0.76 0.82 0.91 1.02 1.14 1.33 1.43 1.39 1.45 1.48 1.46 1.38 1.36 1.39 1.39 1.40 1.42 1.41 1.36 1.35 1.35 1.32 1.30 1.22 1.11 1.05 1.01 0.96 0.96 0.98 0.96 0.95 0.86 0.66
0.37 0.38 0.45 0.48 0.52 0.54 0.56 0.56 0.56 0.60 0.70 0.73 0.79 0.82 0.96 1.10 1.16 1.21 1.22 1.17 1.17 1.23 1.27 1.28 1.30 1.32 1.34 1.33 1.33 1.31 1.28 1.28 1.25 1.18 1.10 0.99 0.88 0.87 0.89 0.92 0.98 1.07 0.97
0.38 0.37 0.42 0.45 0.48 0.53 0.56 0.55 0.55 0.55 0.65 0.71 0.76 0.76 0.79 0.87 1.00 1.08 1.03 1.02 1.03 1.06 1.11 1.13 1.14 1.16 1.18 1.21 1.24 1.21 1.17 1.16 1.13 1.12 1.12 1.06 0.97 0.94 0.94 0.98 1.04 1.11 1.16
0.40 0.40 0.42 0.45 0.50 0.55 0.55 0.52 0.55 0.56 0.59 0.64 0.65 0.65 0.68 0.73 0.80 0.87 0.90 0.90 0.95 0.94 0.95 0.97 0.99 0.99 1.02 1.06 1.10 1.06 1.05 1.07 1.06 1.05 1.08 1.09 1.06 1.07 1.05 1.08 1.13 1.19 1.25
0.39 0.37 0.38 0.43 0.47 0.50 0.46 0.45 0.50 0.53 0.57 0.60 0.58 0.58 0.60 0.62 0.65 0.69 0.75 0.77 0.81 0.85 0.86 0.87 0.89 0.86 0.85 0.89 0.93 0.95 0.94 0.95 0.96 0.99 1.04 1.07 1.08 1.12 1.13 1.16 1.19 1.20 1.19
0.27 0.27 0.28 0.28 0.30 0.31 0.32 0.37 0.40 0.38 0.40 0.43 0.42 0.44 0.46 0.50 0.55 0.58 0.59 0.63 0.70 0.75 0.77 0.77 0.80 0.82 0.80 0.81 0.82 0.83 0.84 0.85 0.85 0.86 0.89 0.91 0.96 1.02 1.03 1.06 1.11 1.12 1.11
0.19 0.21 0.21 0.19 0.20 0.23 0.26 0.29 0.27 0.28 0.32 0.32 0.31 0.33 0.37 0.41 0.44 0.46 0.45 0.47 0.51 0.57 0.62 0.66 0.69 0.70 0.73 0.76 0.79 0.82 0.81 0.79 0.79 0.78 0.80 0.83 0.87 0.92 0.98 1.02 1.03 1.04 1.06
0.13 0.15 0.16 0.15 0.16 0.18 0.20 0.21 0.23 0.29 0.34 0.35 0.34 0.32 0.33 0.35 0.38 0.39 0.39 0.39 0.40 0.41 0.45 0.51 0.58 0.64 0.66 0.70 0.74 0.77 0.79 0.80 0.80 0.82 0.86 0.91 1.00 1.02 0.98 0.95 0.92 0.92 0.96
0.09 0.10 0.11 0.12 0.13 0.14 0.18 0.22 0.27 0.35 0.41 0.43 0.38 0.34 0.34 0.34 0.31 0.30 0.31 0.31 0.32 0.34 0.37 0.43 0.47 0.54 0.60 0.76 0.75 0.71 0.72 0.80 0.84 0.85 0.85 0.88 0.98 0.96 0.95 0.89 0.85 0.86 0.91
0.07 0.07 0.07 0.09 0.12 0.16 0.23 0.31 0.36 0.43 0.45 0.48 0.43 0.37 0.34 0.32 0.29 0.27 0.28 0.30 0.33 0.36 0.39 0.41 0.45 0.51 0.64 0.80 0.77 0.80 0.74 0.77 0.82 0.84 0.82 0.78 0.75 0.76 0.69 0.74 0.79 0.79 0.78
0.04 0.04 0.05 0.06 0.08 0.13 0.22 0.30 0.37 0.48 0.51 0.50 0.48 0.45 0.45 0.45 0.47 0.47 0.48 0.49 0.49 0.50 0.55 0.59 0.62 0.65 0.74 0.80 0.72 0.69 0.64 0.68 0.70 0.69 0.67 0.63 0.58 0.56 0.56 0.59 0.65 0.57 0.54
0.03 0.02 0.03 0.04 0.05 0.08 0.14 0.23 0.35 0.50 0.61 0.67 0.65 0.65 0.67 0.71 0.75 0.77 0.77 0.77 0.79 0.78 0.76 0.73 0.69 0.66 0.66 0.66 0.61 0.57 0.52 0.53 0.52 0.50 0.49 0.49 0.47 0.53 0.60 0.55 0.51 0.47 0.45
0.07 0.05 0.05 0.06 0.09 0.12 0.18 0.30 0.47 0.61 0.71 0.74 0.77 0.81 0.85 0.90 0.87 0.86 0.82 0.75 0.71 0.70 0.68 0.67 0.64 0.58 0.51 0.47 0.42 0.40 0.37 0.36 0.34 0.33 0.33 0.39 0.41 0.49 0.55 0.48 0.45 0.43 0.38
0.17 0.17 0.18 0.20 0.22 0.25 0.34 0.47 0.58 0.67 0.70 0.70 0.71 0.73 0.72 0.72 0.69 0.66 0.63 0.58 0.53 0.47 0.43 0.39 0.36 0.32 0.30 0.29 0.29 0.29 0.27 0.28 0.29 0.28 0.27 0.29 0.38 0.42 0.44 0.44 0.39 0.39 0.42
0.22 0.29 0.34 0.37 0.37 0.40 0.46 0.52 0.54 0.54 0.52 0.49 0.47 0.44 0.39 0.35 0.34 0.34 0.34 0.33 0.30 0.27 0.24 0.21 0.19 0.17 0.16 0.19 0.22 0.26 0.29 0.31 0.29 0.27 0.25 0.27 0.38 0.42 0.42 0.39 0.39 0.44 0.46
0.09 0.14 0.20 0.24 0.25 0.25 0.27 0.29 0.26 0.23 0.19 0.16 0.14 0.13 0.10 0.09 0.09 0.08 0.09 0.11 0.14 0.14 0.14 0.14 0.14 0.14 0.14 0.16 0.20 0.24 0.30 0.33 0.32 0.29 0.31 0.34 0.37 0.39 0.38 0.39 0.42 0.42 0.39
0.03 0.04 0.06 0.07 0.07 0.08 0.08 0.09 0.07 0.05 0.04 0.03 0.03 0.03 0.03 0.03 0.03 0.04 0.04 0.06 0.07 0.09 0.11 0.12 0.13 0.13 0.13 0.15 0.18 0.23 0.28 0.33 0.34 0.33 0.34 0.36 0.36 0.36 0.36 0.38 0.38 0.37 0.36
0.03 0.04 0.04 0.04 0.04 0.04 0.05 0.05 0.05 0.04 0.04 0.03 0.03 0.03 0.03 0.04 0.04 0.04 0.04 0.06 0.06 0.09 0.12 0.14 0.15 0.17 0.18 0.17 0.24 0.30 0.32 0.34 0.37 0.40 0.38 0.36 0.34 0.32 0.32 0.32 0.32 0.33 0.35
0.04 0.04 0.04 0.05 0.06 0.06 0.07 0.07 0.08 0.08 0.07 0.07 0.06 0.07 0.07 0.07 0.07 0.07 0.07 0.09 0.10 0.12 0.14 0.15 0.17 0.17 0.20 0.24 0.30 0.34 0.36 0.40 0.46 0.48 0.41 0.33 0.29 0.28 0.29 0.30 0.32 0.32 0.33

GEFSMW_prec_meanprecacc_138.txt.gz
Total_Precipitation_Accumulation
0.64 0.73 0.77 0.99 1.16 1.25 1.35 1.44 1.52 1.59 1.73 1.75 1.73 1.71 1.54 1.37 1.22 1.11 1.01 0.96 0.93 0.95 0.91 0.84 0.89 0.91 0.84 0.75 0.69 0.67 0.63 0.58 0.58 0.59 0.51 0.44 0.42 0.39 0.34 0.33 0.33 0.31 0.30
0.53 0.64 0.68 0.76 0.91 1.06 1.25 1.38 1.47 1.61 1.63 1.64 1.74 1.87 1.94 1.77 1.51 1.35 1.22 1.12 1.09 1.09 1.05 1.02 1.00 1.00 1.01 1.00 0.96 0.92 0.87 0.81 0.81 0.81 0.78 0.61 0.46 0.37 0.33 0.34 0.35 0.35 0.35
0.41 0.48 0.56 0.69 0.79 0.89 1.10 1.33 1.46 1.60 1.64 1.68 1.90 2.05 2.17 2.01 1.73 1.38 1.22 1.20 1.23 1.24 1.15 1.13 1.16 1.12 1.08 1.05 1.05 1.04 1.02 0.96 0.93 0.93 0.98 0.84 0.58 0.40 0.31 0.28 0.29 0.33 0.35
0.34 0.39 0.46 0.55 0.64 0.76 0.92 1.08 1.26 1.46 1.63 1.69 1.73 1.78 1.85 1.82 1.61 1.50 1.41 1.43 1.44 1.43 1.36 1.29 1.28 1.26 1.21 1.11 1.10 1.09 1.05 1.03 0.98 0.95 0.88 0.81 0.66 0.61 0.46 0.31 0.29 0.32 0.33
0.36 0.37 0.43 0.53 0.57 0.65 0.86 0.99 1.10 1.29 1.51 1.62 1.67 1.78 1.75 1.75 1.83 1.79 1.69 1.60 1.55 1.52 1.46 1.41 1.39 1.32 1.26 1.22 1.23 1.20 1.18 1.11 1.06 1.01 0.95 0.93 0.80 0.67 0.64 0.48 0.34 0.35 0.36
0.45 0.47 0.51 0.54 0.54 0.56 0.74 0.94 1.00 1.11 1.27 1.48 1.66 1.71 1.65 1.68 1.72 1.72 1.68 1.67 1.66 1.62 1.52 1.44 1.39 1.33 1.30 1.28 1.28 1.31 1.28 1.23 1.18 1.13 1.07 1.07 1.01 0.86 0.81 0.72 0.51 0.43 0.39
0.46 0.51 0.53 0.50 0.49 0.52 0.62 0.78 0.93 1.05 1.12 1.27 1.42 1.56 1.63 1.62 1.65 1.68 1.65 1.59 1.51 1.43 1.41 1.42 1.39 1.35 1.29 1.28 1.30 1.32 1.30 1.25 1.21 1.15 1.11 1.11 1.06 0.98 0.96 0.91 0.72 0.58 0.46
0.36 0.40 0.47 0.50 0.51 0.50 0.54 0.58 0.65 0.76 0.82 0.91 1.02 1.14 1.33 1.43 1.39 1.45 1.48 1.46 1.38 1.36 1.39 1.39 1.40 1.42 1.41 1.36 1.35 1.35 1.32 1.30 1.22 1.11 1.05 1.02 0.97 0.97 0.99 0.98 0.97 0.89 0.69
0.37 0.39 0.46 0.48 0.52 0.54 0.56 0.56 0.56 0.60 0.70 0.73 0.79 0.82 0.96 1.10 1.16 1.21 1.22 1.17 1.17 1.23 1.27 1.28 1.30 1.32 1.34 1.33 1.33 1.32 1.28 1.28 1.25 1.18 1.10 0.99 0.88 0.87 0.89 0.93 1.00 1.10 1.00
0.38 0.38 0.43 0.45 0.48 0.53 0.56 0.55 0.55 0.55 0.65 0.71 0.76 0.76 0.79 0.87 1.00 1.08 1.03 1.02 1.03 1.06 1.11 1.13 1.14 1.16 1.18 1.21 1.24 1.22 1.18 1.16 1.13 1.12 1.12 1.07 0.97 0.94 0.95 0.99 1.05 1.14 1.19
0.40 0.40 0.42 0.46 0.50 0.56 0.55 0.52 0.55 0.56 0.59 0.64 0.65 0.65 0.68 0.73 0.80 0.87 0.90 0.90 0.95 0.94 0.95 0.97 0.99 0.99 1.02 1.06 1.10 1.06 1.05 1.07 1.06 1.05 1.08 1.10 1.07 1.08 1.06 1.10 1.16 1.22 1.29
0.39 0.37 0.39 0.43 0.47 0.50 0.46 0.45 0.50 0.53 0.57 0.60 0.58 0.58 0.60 0.62 0.65 0.69 0.75 0.77 0.81 0.85 0.86 0.87 0.89 0.86 0.85 0.89 0.93 0.95 0.95 0.95 0.96 0.99 1.05 1.08 1.09 1.13 1.14 1.18 1.21 1.24 1.24
0.27 0.28 0.28 0.29 0.30 0.31 0.32 0.37 0.40 0.38 0.40 0.43 0.42 0.44 0.46 0.50 0.55 0.58 0.59 0.63 0.70 0.75 0.77 0.78 0.80 0.82 0.80 0.81 0.82 0.83 0.84 0.85 0.85 0.86 0.90 0.91 0.97 1.03 1.04 1.08 1.13 1.14 1.14
0.19 0.21 0.21 0.19 0.20 0.23 0.26 0.29 0.27 0.29 0.32 0.32 0.31 0.33 0.37 0.41 0.44 0.46 0.45 0.47 0.51 0.57 0.62 0.67 0.70 0.70 0.73 0.77 0.80 0.82 0.81 0.80 0.79 0.79 0.81 0.83 0.88 0.93 0.98 1.03 1.05 1.06 1.08
0.13 0.16 0.17 0.16 0.17 0.18 0.20 0.21 0.23 0.29 0.34 0.35 0.34 0.32 0.33 0.35 0.38 0.39 0.40 0.39 0.41 0.42 0.45 0.51 0.59 0.64 0.66 0.70 0.74 0.77 0.80 0.80 0.80 0.82 0.87 0.91 1.01 1.02 0.99 0.96 0.94 0.94 0.98
0.09 0.10 0.11 0.12 0.13 0.14 0.18 0.22 0.27 0.35 0.41 0.43 0.38 0.34 0.34 0.34 0.31 0.30 0.31 0.31 0.32 0.34 0.37 0.43 0.47 0.54 0.60 0.76 0.75 0.71 0.72 0.80 0.84 0.86 0.86 0.89 0.99 0.97 0.96 0.90 0.85 0.87 0.93
0.07 0.07 0.07 0.09 0.12 0.16 0.23 0.31 0.36 0.43 0.45 0.48 0.43 0.37 0.34 0.32 0.29 0.27 0.28 0.30 0.33 0.36 0.39 0.41 0.45 0.51 0.65 0.80 0.77 0.81 0.74 0.77 0.82 0.84 0.82 0.78 0.75 0.77 0.69 0.75 0.79 0.80 0.79
0.04 0.04 0.05 0.06 0.08 0.13 0.22 0.30 0.37 0.48 0.51 0.50 0.48 0.45 0.45 0.45 0.47 0.47 0.48 0.49 0.49 0.50 0.55 0.59 0.63 0.66 0.75 0.81 0.73 0.70 0.65 0.68 0.71 0.69 0.67 0.63 0.58 0.56 0.56 0.59 0.65 0.58 0.54
0.03 0.02 0.03 0.04 0.05 0.08 0.14 0.23 0.35 0.50 0.61 0.67 0.65 0.65 0.67 0.71 0.75 0.77 0.77 0.77 0.79 0.78 0.76 0.73 0.69 0.66 0.66 0.67 0.61 0.57 0.52 0.53 0.53 0.50 0.49 0.49 0.47 0.53 0.60 0.55 0.51 0.47 0.46
0.07 0.05 0.05 0.06 0.09 0.12 0.18 0.30 0.47 0.61 0.71 0.74 0.77 0.81 0.85 0.90 0.87 0.86 0.82 0.75 0.71 0.70 0.68 0.67 0.64 0.58 0.52 0.47 0.42 0.40 0.37 0.37 0.35 0.33 0.34 0.39 0.41 0.50 0.56 0.48 0.46 0.43 0.38
0.17 0.17 0.18 0.20 0.22 0.25 0.34 0.47 0.58 0.67 0.70 0.70 0.71 0.73 0.72 0.72 0.69 0.66 0.63 0.58 0.53 0.47 0.43 0.39 0.36 0.32 0.30 0.30 0.29 0.29 0.27 0.28 0.29 0.29 0.28 0.30 0.39 0.43 0.45 0.45 0.40 0.40 0.42
0.22 0.29 0.34 0.37 0.37 0.40 0.46 0.52 0.54 0.54 0.52 0.49 0.47 0.44 0.39 0.35 0.34 0.34 0.34 0.33 0.30 0.27 0.24 0.21 0.19 0.17 0.17 0.19 0.22 0.26 0.29 0.31 0.29 0.28 0.26 0.29 0.39 0.44 0.44 0.40 0.40 0.45 0.46
0.09 0.14 0.20 0.24 0.25 0.25 0.27 0.29 0.26 0.23 0.19 0.16 0.14 0.13 0.10 0.09 0.09 0.08 0.09 0.11 0.14 0.15 0.14 0.14 0.14 0.14 0.14 0.16 0.21 0.24 0.30 0.34 0.32 0.29 0.31 0.34 0.38 0.40 0.39 0.40 0.42 0.42 0.39
0.03 0.04 0.06 0.07 0.07 0.08 0.08 0.09 0.07 0.05 0.04 0.03 0.03 0.03 0.03 0.03 0.03 0.04 0.04 0.06 0.07 0.09 0.11 0.13 0.13 0.13 0.14 0.15 0.18 0.23 0.28 0.34 0.34 0.33 0.34 0.36 0.36 0.36 0.36 0.38 0.38 0.37 0.36
0.03 0.04 0.04 0.04 0.04 0.04 0.05 0.05 0.05 0.04 0.04 0.03 0.03 0.03 0.03 0.04 0.04 0.04 0.04 0.06 0.07 0.09 0.13 0.14 0.15 0.17 0.18 0.17 0.24 0.30 0.32 0.34 0.37 0.40 0.38 0.36 0.34 0.32 0.32 0.32 0.32 0.33 0.35
0.04 0.04 0.04 0.05 0.06 0.06 0.07 0.07 0.08 0.08 0.07 0.07 0.07 0.07 0.07 0.07 0.07 0.07 0.07 0.09 0.10 0.12 0.14 0.15 0.17 0.17 0.20 0.24 0.30 0.34 0.36 0.40 0.46 0.48 0.41 0.33 0.29 0.29 0.29 0.31 0.32 0.32 0.34

GEFSMW_prec_meanprecacc_144.txt.gz
Total_Precipitation_Accumulation
0.65 0.74 0.79 1.02 1.21 1.29 1.39 1.48 1.57 1.63 1.77 1.78 1.77 1.76 1.59 1.40 1.24 1.12 1.03 0.97 0.95 0.97 0.92 0.86 0.90 0.91 0.85 0.75 0.70 0.67 0.63 0.59 0.58 0.59 0.51 0.44 0.42 0.39 0.34 0.33 0.34 0.32 0.31
0.54 0.64 0.70 0.80 0.98 1.11 1.28 1.41 1.51 1.65 1.66 1.66 1.77 1.90 1.98 1.80 1.52 1.37 1.24 1.14 1.10 1.10 1.06 1.03 1.01 1.01 1.02 1.00 0.96 0.93 0.87 0.81 0.81 0.81 0.78 0.62 0.47 0.37 0.33 0.34 0.36 0.35 0.35
0.42 0.49 0.57 0.72 0.86 0.97 1.14 1.36 1.50 1.65 1.67 1.71 1.92 2.07 2.19 2.03 1.73 1.39 1.23 1.22 1.25 1.26 1.17 1.15 1.18 1.13 1.09 1.05 1.05 1.04 1.02 0.96 0.93 0.93 0.98 0.84 0.58 0.40 0.32 0.29 0.30 0.33 0.35
0.36 0.40 0.48 0.59 0.71 0.86 1.00 1.12 1.30 1.50 1.67 1.71 1.75 1.80 1.87 1.83 1.62 1.50 1.42 1.44 1.45 1.44 1.38 1.31 1.30 1.27 1.22 1.12 1.10 1.09 1.05 1.03 0.98 0.95 0.88 0.81 0.66 0.61 0.46 0.32 0.30 0.32 0.33
0.38 0.39 0.47 0.57 0.63 0.75 0.96 1.05 1.14 1.33 1.54 1.65 1.69 1.80 1.76 1.76 1.84 1.80 1.69 1.61 1.56 1.53 1.48 1.43 1.40 1.33 1.27 1.22 1.23 1.20 1.18 1.11 1.06 1.01 0.95 0.93 0.80 0.67 0.65 0.48 0.34 0.35 0.36
0.49 0.52 0.56 0.57 0.58 0.63 0.82 1.02 1.05 1.15 1.29 1.50 1.68 1.73 1.66 1.68 1.72 1.73 1.69 1.68 1.67 1.63 1.54 1.45 1.40 1.34 1.30 1.28 1.28 1.31 1.28 1.23 1.18 1.13 1.07 1.07 1.01 0.86 0.82 0.73 0.51 0.43 0.39
0.50 0.55 0.58 0.53 0.52 0.57 0.68 0.85 0.97 1.08 1.14 1.29 1.43 1.57 1.63 1.62 1.65 1.68 1.66 1.59 1.51 1.44 1.43 1.43 1.39 1.35 1.29 1.28 1.30 1.32 1.30 1.25 1.21 1.15 1.11 1.11 1.07 0.98 0.96 0.92 0.72 0.58 0.47
0.41 0.44 0.51 0.52 0.53 0.54 0.58 0.63 0.68 0.77 0.84 0.92 1.03 1.15 1.33 1.43 1.39 1.45 1.49 1.46 1.39 1.37 1.40 1.40 1.40 1.42 1.41 1.36 1.35 1.35 1.32 1.30 1.22 1.11 1.05 1.02 0.97 0.97 0.99 0.98 0.98 0.90 0.69
0.41 0.42 0.49 0.50 0.54 0.57 0.59 0.58 0.57 0.61 0.71 0.74 0.79 0.82 0.96 1.10 1.16 1.22 1.22 1.18 1.17 1.23 1.27 1.28 1.30 1.32 1.34 1.33 1.33 1.32 1.28 1.28 1.25 1.18 1.11 0.99 0.88 0.87 0.90 0.93 1.00 1.11 1.01
0.41 0.40 0.45 0.47 0.50 0.55 0.58 0.56 0.55 0.55 0.65 0.71 0.76 0.76 0.79 0.87 1.00 1.08 1.03 1.02 1.03 1.06 1.11 1.13 1.14 1.16 1.18 1.21 1.24 1.22 1.18 1.16 1.13 1.12 1.12 1.07 0.98 0.94 0.95 0.99 1.06 1.14 1.20
0.42 0.42 0.44 0.47 0.51 0.56 0.56 0.53 0.56 0.57 0.60 0.64 0.65 0.65 0.68 0.73 0.80 0.87 0.90 0.91 0.95 0.94 0.95 0.97 0.99 0.99 1.02 1.06 1.10 1.06 1.05 1.07 1.06 1.05 1.08 1.10 1.07 1.08 1.06 1.10 1.16 1.23 1.30
0.40 0.39 0.40 0.44 0.48 0.50 0.46 0.45 0.50 0.53 0.58 0.60 0.58 0.58 0.60 0.62 0.65 0.69 0.75 0.77 0.81 0.85 0.86 0.87 0.89 0.86 0.85 0.89 0.93 0.95 0.95 0.95 0.96 0.99 1.05 1.08 1.09 1.14 1.14 1.18 1.22 1.24 1.24
0.28 0.28 0.29 0.29 0.30 0.32 0.32 0.37 0.41 0.38 0.41 0.43 0.42 0.44 0.46 0.50 0.55 0.58 0.59 0.63 0.70 0.75 0.77 0.78 0.80 0.82 0.80 0.81 0.83 0.83 0.84 0.85 0.86 0.86 0.90 0.91 0.97 1.03 1.04 1.08 1.13 1.14 1.14
0.20 0.21 0.22 0.19 0.20 0.23 0.26 0.29 0.27 0.29 0.32 0.32 0.31 0.33 0.37 0.41 0.44 0.46 0.45 0.47 0.51 0.57 0.62 0.67 0.70 0.70 0.73 0.77 0.80 0.82 0.81 0.80 0.79 0.79 0.81 0.83 0.88 0.93 0.99 1.04 1.05 1.06 1.08
0.13 0.16 0.17 0.16 0.17 0.18 0.20 0.21 0.23 0.29 0.34 0.35 0.34 0.32 0.33 0.35 0.38 0.39 0.40 0.39 0.41 0.42 0.45 0.51 0.59 0.64 0.66 0.70 0.75 0.77 0.80 0.80 0.80 0.82 0.87 0.91 1.01 1.03 0.99 0.96 0.94 0.94 0.99
0.09 0.10 0.11 0.12 0.13 0.14 0.18 0.22 0.27 0.35 0.41 0.43 0.38 0.34 0.34 0.34 0.31 0.30 0.31 0.31 0.33 0.34 0.37 0.43 0.47 0.54 0.60 0.76 0.75 0.71 0.72 0.80 0.84 0.86 0.86 0.89 0.99 0.97 0.96 0.90 0.86 0.87 0.93
0.07 0.07 0.08 0.09 0.12 0.16 0.23 0.31 0.36 0.43 0.45 0.48 0.43 0.37 0.34 0.32 0.29 0.27 0.28 0.30 0.33 0.36 0.39 0.41 0.45 0.51 0.65 0.80 0.77 0.81 0.74 0.77 0.82 0.84 0.82 0.78 0.75 0.77 0.69 0.75 0.80 0.80 0.80
0.04 0.04 0.05 0.06 0.08 0.13 0.22 0.30 0.37 0.48 0.51 0.50 0.48 0.45 0.45 0.45 0.47 0.47 0.48 0.49 0.49 0.50 0.55 0.59 0.63 0.66 0.75 0.81 0.73 0.70 0.65 0.68 0.71 0.69 0.67 0.63 0.58 0.56 0.56 0.59 0.65 0.58 0.54
0.03 0.02 0.03 0.04 0.05 0.08 0.14 0.23 0.35 0.50 0.61 0.67 0.65 0.65 0.67 0.71 0.75 0.77 0.77 0.77 0.79 0.78 0.76 0.73 0.69 0.66 0.66 0.67 0.61 0.57 0.52 0.53 0.53 0.51 0.50 0.49 0.47 0.54 0.61 0.55 0.51 0.47 0.46
0.07 0.05 0.05 0.06 0.09 0.12 0.18 0.30 0.47 0.61 0.71 0.74 0.77 0.81 0.85 0.90 0.87 0.86 0.82 0.75 0.71 0.70 0.68 0.67 0.64 0.58 0.52 0.47 0.42 0.40 0.37 0.37 0.35 0.33 0.34 0.40 0.41 0.50 0.56 0.48 0.46 0.43 0.38
0.17 0.17 0.18 0.20 0.22 0.25 0.34 0.47 0.58 0.67 0.70 0.70 0.71 0.73 0.72 0.72 0.69 0.66 0.63 0.58 0.53 0.47 0.43 0.39 0.36 0.33 0.30 0.30 0.29 0.29 0.27 0.28 0.30 0.29 0.28 0.30 0.39 0.43 0.46 0.45 0.40 0.40 0.43
0.22 0.29 0.34 0.37 0.37 0.40 0.46 0.52 0.54 0.54 0.52 0.49 0.47 0.44 0.39 0.35 0.34 0.34 0.34 0.33 0.31 0.27 0.24 0.21 0.19 0.17 0.17 0.19 0.22 0.26 0.29 0.31 0.30 0.28 0.27 0.29 0.40 0.44 0.44 0.41 0.40 0.46 0.47
0.09 0.14 0.20 0.24 0.25 0.25 0.27 0.29 0.26 0.23 0.19 0.16 0.14 0.13 0.10 0.09 0.09 0.08 0.09 0.11 0.14 0.15 0.14 0.14 0.14 0.14 0.14 0.17 0.21 0.24 0.30 0.34 0.32 0.29 0.32 0.34 0.38 0.40 0.39 0.40 0.43 0.43 0.39
0.03 0.04 0.06 0.07 0.07 0.08 0.08 0.09 0.07 0.05 0.04 0.03 0.03 0.03 0.03 0.03 0.03 0.04 0.04 0.06 0.07 0.09 0.11 0.13 0.13 0.14 0.14 0.15 0.18 0.23 0.28 0.34 0.34 0.34 0.34 0.36 0.36 0.36 0.36 0.38 0.38 0.37 0.36
0.03 0.04 0.04 0.04 0.04 0.04 0.05 0.05 0.05 0.04 0.04 0.03 0.03 0.03 0.03 0.04 0.04 0.04 0.04 0.06 0.07 0.09 0.13 0.14 0.16 0.18 0.18 0.17 0.25 0.31 0.32 0.35 0.38 0.40 0.38 0.36 0.34 0.33 0.32 0.32 0.32 0.33 0.35
0.04 0.04 0.04 0.05 0.06 0.06 0.07 0.07 0.08 0.08 0.07 0.07 0.07 0.07 0.07 0.07 0.07 0.08 0.08 0.09 0.11 0.13 0.15 0.16 0.17 0.18 0.20 0.24 0.30 0.34 0.37 0.40 0.46 0.49 0.42 0.34 0.30 0.29 0.29 0.31 0.32 0.33 0.34

GEFSMW_prec_meanprecacc_150.txt.gz
Total_Precipitation_Accumulation
0.66 0.75 0.80 1.04 1.22 1.31 1.41 1.50 1.60 1.69 1.82 1.83 1.81 1.78 1.61 1.43 1.28 1.17 1.08 1.02 1.00 1.01 0.95 0.87 0.91 0.92 0.86 0.76 0.70 0.67 0.64 0.59 0.58 0.59 0.51 0.44 0.42 0.39 0.34 0.33 0.34 0.32 0.31
0.55 0.65 0.71 0.81 0.99 1.12 1.29 1.42 1.52 1.68 1.71 1.71 1.81 1.93 1.99 1.82 1.56 1.41 1.29 1.18 1.15 1.14 1.08 1.05 1.03 1.02 1.02 1.01 0.96 0.93 0.88 0.81 0.81 0.81 0.78 0.62 0.47 0.37 0.33 0.34 0.36 0.35 0.35
0.43 0.50 0.58 0.73 0.87 0.98 1.15 1.37 1.50 1.66 1.71 1.75 1.97 2.11 2.22 2.06 1.77 1.43 1.27 1.26 1.29 1.29 1.19 1.16 1.19 1.14 1.10 1.06 1.05 1.05 1.03 0.97 0.93 0.93 0.99 0.85 0.59 0.40 0.32 0.29 0.30 0.33 0.35
0.37 0.41 0.49 0.60 0.72 0.87 1.01 1.13 1.30 1.50 1.68 1.75 1.80 1.85 1.91 1.87 1.65 1.54 1.45 1.47 1.48 1.47 1.39 1.32 1.30 1.28 1.22 1.13 1.11 1.10 1.06 1.03 0.99 0.95 0.88 0.81 0.67 0.61 0.47 0.32 0.30 0.32 0.33
0.39 0.41 0.49 0.58 0.64 0.76 0.98 1.07 1.15 1.34 1.55 1.68 1.74 1.85 1.81 1.80 1.88 1.83 1.72 1.63 1.59 1.56 1.50 1.43 1.41 1.34 1.28 1.23 1.24 1.21 1.18 1.11 1.06 1.01 0.95 0.93 0.80 0.68 0.65 0.48 0.34 0.35 0.36
0.50 0.53 0.58 0.59 0.59 0.64 0.84 1.05 1.08 1.17 1.31 1.53 1.72 1.78 1.70 1.73 1.77 1.76 1.72 1.70 1.70 1.66 1.56 1.47 1.42 1.36 1.31 1.29 1.29 1.32 1.28 1.24 1.18 1.13 1.08 1.07 1.01 0.86 0.82 0.73 0.51 0.43 0.39
0.51 0.57 0.60 0.55 0.54 0.58 0.70 0.88 1.00 1.11 1.17 1.32 1.48 1.62 1.69 1.68 1.70 1.71 1.68 1.61 1.54 1.47 1.45 1.45 1.41 1.37 1.31 1.29 1.31 1.33 1.30 1.26 1.21 1.15 1.11 1.11 1.07 0.98 0.97 0.92 0.72 0.58 0.47
0.42 0.46 0.53 0.55 0.55 0.55 0.60 0.66 0.72 0.81 0.88 0.96 1.08 1.21 1.40 1.49 1.45 1.49 1.51 1.48 1.41 1.40 1.42 1.42 1.42 1.43 1.42 1.37 1.36 1.35 1.33 1.31 1.22 1.11 1.05 1.02 0.97 0.97 0.99 0.99 0.98 0.90 0.69
0.43 0.44 0.51 0.53 0.56 0.58 0.61 0.61 0.61 0.66 0.76 0.79 0.84 0.88 1.03 1.16 1.20 1.26 1.25 1.19 1.19 1.26 1.29 1.29 1.31 1.33 1.35 1.34 1.34 1.32 1.28 1.28 1.25 1.18 1.11 0.99 0.88 0.87 0.90 0.93 1.01 1.12 1.01
0.42 0.42 0.47 0.50 0.53 0.57 0.60 0.59 0.58 0.60 0.70 0.77 0.81 0.81 0.84 0.90 1.02 1.11 1.05 1.03 1.05 1.08 1.12 1.14 1.15 1.17 1.19 1.21 1.25 1.22 1.18 1.17 1.13 1.12 1.12 1.07 0.98 0.94 0.95 0.99 1.06 1.14 1.20
0.43 0.43 0.46 0.50 0.54 0.59 0.59 0.56 0.59 0.60 0.63 0.67 0.68 0.69 0.71 0.76 0.82 0.90 0.93 0.92 0.96 0.95 0.96 0.98 1.00 1.00 1.02 1.07 1.11 1.07 1.05 1.07 1.06 1.05 1.08 1.10 1.07 1.08 1.06 1.10 1.17 1.23 1.30
0.41 0.40 0.42 0.47 0.52 0.53 0.49 0.48 0.53 0.55 0.60 0.62 0.60 0.60 0.62 0.65 0.68 0.72 0.77 0.79 0.83 0.85 0.86 0.88 0.89 0.86 0.85 0.89 0.93 0.95 0.95 0.95 0.96 0.99 1.05 1.08 1.09 1.14 1.15 1.18 1.22 1.24 1.25
0.29 0.29 0.31 0.33 0.34 0.35 0.35 0.39 0.43 0.41 0.43 0.45 0.44 0.46 0.48 0.52 0.58 0.61 0.62 0.64 0.70 0.75 0.77 0.78 0.80 0.82 0.80 0.81 0.83 0.83 0.84 0.85 0.86 0.86 0.90 0.91 0.97 1.03 1.04 1.08 1.13 1.14 1.15
0.21 0.22 0.23 0.22 0.24 0.26 0.29 0.31 0.30 0.31 0.34 0.34 0.33 0.35 0.38 0.42 0.46 0.49 0.47 0.48 0.52 0.58 0.62 0.67 0.70 0.71 0.73 0.77 0.80 0.82 0.81 0.80 0.79 0.79 0.81 0.83 0.88 0.93 0.99 1.04 1.05 1.06 1.08
0.14 0.17 0.18 0.18 0.19 0.21 0.22 0.22 0.24 0.31 0.35 0.37 0.35 0.34 0.35 0.37 0.39 0.41 0.41 0.40 0.41 0.42 0.45 0.51 0.59 0.64 0.66 0.70 0.75 0.77 0.80 0.80 0.80 0.82 0.87 0.91 1.01 1.03 0.99 0.96 0.94 0.94 0.99
0.10 0.11 0.12 0.13 0.14 0.16 0.19 0.23 0.27 0.36 0.42 0.44 0.39 0.35 0.34 0.34 0.32 0.31 0.31 0.32 0.33 0.34 0.37 0.43 0.47 0.54 0.60 0.76 0.75 0.71 0.72 0.80 0.84 0.86 0.86 0.89 0.99 0.97 0.96 0.90 0.86 0.87 0.93
0.07 0.07 0.08 0.10 0.12 0.17 0.24 0.31 0.36 0.44 0.46 0.49 0.44 0.37 0.34 0.33 0.30 0.27 0.28 0.30 0.33 0.36 0.39 0.41 0.45 0.51 0.65 0.80 0.77 0.81 0.74 0.77 0.82 0.84 0.82 0.78 0.75 0.77 0.69 0.75 0.80 0.80 0.80
0.04 0.04 0.05 0.06 0.08 0.13 0.22 0.30 0.37 0.48 0.51 0.50 0.48 0.46 0.45 0.45 0.47 0.47 0.48 0.49 0.49 0.50 0.55 0.59 0.63 0.66 0.75 0.81 0.73 0.70 0.65 0.69 0.71 0.69 0.67 0.63 0.58 0.56 0.57 0.59 0.66 0.58 0.54
0.03 0.03 0.03 0.04 0.05 0.08 0.14 0.23 0.35 0.50 0.61 0.67 0.65 0.65 0.67 0.71 0.75 0.77 0.77 0.77 0.79 0.78 0.76 0.73 0.69 0.66 0.66 0.67 0.61 0.57 0.53 0.53 0.53 0.51 0.50 0.50 0.47 0.54 0.61 0.56 0.52 0.47 0.46
0.07 0.05 0.05 0.06 0.09 0.12 0.18 0.30 0.47 0.61 0.71 0.74 0.77 0.81 0.85 0.90 0.87 0.86 0.82 0.75 0.71 0.70 0.68 0.67 0.64 0.58 0.52 0.47 0.42 0.40 0.37 0.37 0.35 0.33 0.34 0.40 0.41 0.50 0.56 0.49 0.46 0.44 0.38
0.17 0.17 0.18 0.20 0.22 0.25 0.34 0.47 0.58 0.67 0.70 0.70 0.71 0.73 0.72 0.72 0.69 0.66 0.63 0.58 0.53 0.47 0.43 0.39 0.36 0.33 0.30 0.30 0.29 0.29 0.27 0.28 0.30 0.30 0.28 0.30 0.39 0.44 0.46 0.46 0.40 0.40 0.43
0.22 0.29 0.34 0.37 0.37 0.40 0.46 0.52 0.54 0.54 0.52 0.49 0.47 0.44 0.39 0.35 0.34 0.34 0.34 0.33 0.31 0.27 0.24 0.21 0.19 0.17 0.17 0.19 0.22 0.26 0.29 0.31 0.30 0.28 0.27 0.29 0.40 0.45 0.44 0.41 0.41 0.46 0.48
0.09 0.14 0.20 0.24 0.25 0.25 0.27 0.29 0.26 0.23 0.19 0.16 0.14 0.13 0.10 0.09 0.09 0.08 0.09 0.11 0.14 0.15 0.14 0.14 0.14 0.14 0.14 0.17 0.21 0.24 0.30 0.34 0.32 0.30 0.32 0.35 0.38 0.40 0.39 0.40 0.43 0.43 0.39
0.03 0.04 0.06 0.07 0.07 0.08 0.08 0.09 0.07 0.05 0.04 0.03 0.03 0.03 0.03 0.03 0.04 0.04 0.05 0.06 0.07 0.09 0.11 0.13 0.13 0.14 0.14 0.15 0.19 0.23 0.28 0.34 0.35 0.34 0.35 0.36 0.37 0.37 0.37 0.38 0.39 0.37 0.36
0.03 0.04 0.04 0.04 0.04 0.04 0.05 0.05 0.05 0.04 0.04 0.03 0.03 0.03 0.04 0.04 0.04 0.04 0.05 0.06 0.07 0.09 0.13 0.15 0.16 0.18 0.18 0.17 0.25 0.31 0.32 0.35 0.38 0.41 0.39 0.36 0.34 0.33 0.32 0.32 0.33 0.34 0.36
0.04 0.04 0.04 0.05 0.06 0.06 0.07 0.07 0.08 0.08 0.07 0.07 0.07 0.07 0.07 0.07 0.08 0.08 0.08 0.10 0.11 0.13 0.15 0.16 0.17 0.18 0.21 0.24 0.31 0.35 0.37 0.41 0.47 0.50 0.42 0.34 0.30 0.29 0.30 0.32 0.33 0.33 0.35

GEFSMW_prec_meanprecacc_156.txt.gz
Total_Precipitation_Accumulation
0.76 0.83 0.89 1.12 1.31 1.39 1.48 1.57 1.67 1.73 1.85 1.89 1.88 1.87 1.74 1.54 1.36 1.23 1.12 1.06 1.05 1.10 1.04 0.94 0.94 0.94 0.87 0.78 0.73 0.70 0.65 0.60 0.59 0.60 0.51 0.44 0.42 0.39 0.34 0.33 0.34 0.32 0.31
0.62 0.71 0.76 0.86 1.03 1.16 1.33 1.50 1.61 1.73 1.73 1.73 1.87 1.99 2.09 1.93 1.62 1.45 1.33 1.20 1.17 1.18 1.14 1.10 1.07 1.04 1.03 1.01 0.97 0.94 0.89 0.82 0.82 0.82 0.78 0.62 0.47 0.37 0.33 0.35 0.36 0.35 0.35
0.48 0.55 0.62 0.77 0.90 1.01 1.18 1.42 1.56 1.69 1.72 1.76 1.99 2.16 2.28 2.15 1.85 1.47 1.29 1.27 1.29 1.31 1.24 1.21 1.23 1.17 1.11 1.07 1.06 1.05 1.04 0.98 0.94 0.94 1.00 0.85 0.59 0.40 0.32 0.29 0.30 0.33 0.36
0.40 0.45 0.54 0.63 0.74 0.89 1.02 1.15 1.33 1.52 1.69 1.75 1.80 1.88 1.96 1.93 1.72 1.58 1.47 1.48 1.49 1.48 1.41 1.36 1.34 1.30 1.24 1.13 1.11 1.10 1.06 1.04 0.99 0.95 0.88 0.81 0.67 0.62 0.47 0.32 0.30 0.32 0.33
0.42 0.44 0.52 0.62 0.66 0.77 0.98 1.08 1.15 1.35 1.56 1.68 1.74 1.85 1.83 1.85 1.94 1.87 1.75 1.64 1.60 1.57 1.51 1.45 1.43 1.36 1.30 1.24 1.24 1.21 1.18 1.12 1.06 1.01 0.95 0.93 0.80 0.68 0.65 0.49 0.34 0.35 0.36
0.52 0.55 0.59 0.61 0.61 0.65 0.85 1.06 1.08 1.17 1.32 1.53 1.72 1.78 1.71 1.75 1.82 1.82 1.76 1.72 1.71 1.68 1.58 1.49 1.43 1.37 1.33 1.30 1.29 1.32 1.28 1.24 1.18 1.14 1.08 1.07 1.01 0.86 0.82 0.73 0.51 0.43 0.39
0.52 0.57 0.60 0.55 0.55 0.59 0.70 0.88 1.01 1.12 1.18 1.33 1.48 1.63 1.69 1.69 1.73 1.76 1.72 1.64 1.56 1.48 1.47 1.47 1.43 1.39 1.32 1.30 1.31 1.33 1.30 1.26 1.21 1.15 1.12 1.11 1.07 0.99 0.97 0.93 0.73 0.58 0.47
0.42 0.46 0.53 0.55 0.55 0.56 0.61 0.66 0.73 0.82 0.88 0.97 1.08 1.21 1.40 1.50 1.48 1.54 1.55 1.51 1.43 1.41 1.43 1.43 1.44 1.45 1.43 1.38 1.36 1.35 1.33 1.31 1.22 1.11 1.06 1.02 0.98 0.98 1.00 1.00 0.99 0.91 0.70
0.43 0.44 0.51 0.54 0.57 0.59 0.62 0.62 0.62 0.66 0.76 0.79 0.85 0.89 1.04 1.18 1.24 1.31 1.30 1.24 1.22 1.29 1.31 1.31 1.33 1.34 1.36 1.35 1.35 1.32 1.28 1.28 1.25 1.18 1.11 0.99 0.89 0.88 0.90 0.94 1.01 1.12 1.02
0.43 0.42 0.48 0.51 0.53 0.58 0.61 0.60 0.59 0.60 0.70 0.77 0.82 0.83 0.87 0.94 1.07 1.16 1.10 1.07 1.08 1.12 1.16 1.15 1.16 1.18 1.19 1.22 1.26 1.22 1.18 1.17 1.13 1.12 1.12 1.07 0.98 0.94 0.95 1.00 1.06 1.15 1.20
0.44 0.45 0.48 0.52 0.55 0.59 0.59 0.56 0.59 0.60 0.64 0.69 0.70 0.71 0.74 0.79 0.85 0.93 0.96 0.95 0.98 0.97 0.98 1.00 1.01 1.01 1.03 1.07 1.11 1.08 1.05 1.08 1.07 1.06 1.08 1.10 1.07 1.08 1.06 1.10 1.17 1.23 1.31
0.44 0.43 0.44 0.48 0.53 0.54 0.50 0.48 0.54 0.57 0.61 0.64 0.62 0.62 0.64 0.67 0.70 0.73 0.79 0.80 0.83 0.86 0.88 0.90 0.91 0.87 0.85 0.89 0.94 0.96 0.95 0.96 0.97 1.00 1.05 1.08 1.09 1.14 1.15 1.18 1.22 1.25 1.25
0.32 0.32 0.33 0.35 0.36 0.36 0.36 0.40 0.44 0.42 0.44 0.47 0.46 0.47 0.50 0.53 0.59 0.62 0.63 0.66 0.71 0.76 0.79 0.80 0.82 0.83 0.81 0.82 0.83 0.84 0.85 0.86 0.86 0.87 0.90 0.92 0.97 1.03 1.04 1.08 1.13 1.14 1.15
0.24 0.25 0.26 0.25 0.26 0.27 0.29 0.32 0.31 0.32 0.35 0.35 0.34 0.37 0.40 0.43 0.47 0.50 0.49 0.50 0.53 0.59 0.63 0.68 0.72 0.72 0.74 0.77 0.80 0.82 0.81 0.80 0.79 0.79 0.81 0.83 0.88 0.93 0.99 1.04 1.05 1.06 1.09
0.17 0.20 0.21 0.21 0.22 0.23 0.23 0.23 0.26 0.32 0.37 0.38 0.36 0.35 0.36 0.38 0.41 0.43 0.43 0.42 0.43 0.43 0.46 0.52 0.60 0.65 0.67 0.71 0.75 0.78 0.80 0.80 0.80 0.83 0.87 0.91 1.01 1.03 0.99 0.96 0.94 0.95 0.99
0.12 0.13 0.15 0.16 0.17 0.18 0.20 0.24 0.29 0.37 0.43 0.46 0.40 0.36 0.36 0.36 0.34 0.33 0.33 0.33 0.34 0.35 0.38 0.43 0.48 0.55 0.61 0.77 0.76 0.71 0.73 0.80 0.84 0.86 0.86 0.89 0.99 0.97 0.96 0.90 0.86 0.87 0.94
0.09 0.09 0.10 0.12 0.14 0.18 0.25 0.32 0.37 0.44 0.47 0.50 0.45 0.39 0.35 0.34 0.31 0.29 0.29 0.31 0.34 0.37 0.40 0.42 0.46 0.52 0.65 0.81 0.78 0.81 0.75 0.77 0.82 0.84 0.82 0.78 0.75 0.77 0.69 0.75 0.80 0.80 0.80
0.05 0.05 0.06 0.07 0.09 0.14 0.23 0.31 0.37 0.49 0.51 0.51 0.49 0.47 0.46 0.46 0.48 0.48 0.49 0.50 0.50 0.51 0.55 0.60 0.63 0.67 0.76 0.82 0.73 0.70 0.65 0.69 0.71 0.69 0.67 0.63 0.58 0.56 0.57 0.60 0.66 0.58 0.55
0.03 0.03 0.04 0.05 0.05 0.08 0.14 0.23 0.35 0.50 0.62 0.67 0.66 0.66 0.68 0.72 0.76 0.78 0.77 0.78 0.79 0.79 0.76 0.73 0.70 0.66 0.67 0.67 0.62 0.57 0.53 0.53 0.53 0.51 0.50 0.50 0.47 0.54 0.61 0.56 0.52 0.48 0.46
0.07 0.05 0.05 0.07 0.09 0.12 0.18 0.30 0.47 0.61 0.71 0.75 0.78 0.81 0.86 0.91 0.88 0.87 0.83 0.76 0.71 0.70 0.69 0.67 0.64 0.58 0.52 0.47 0.42 0.40 0.37 0.37 0.35 0.33 0.34 0.40 0.41 0.50 0.57 0.50 0.47 0.44 0.39
0.17 0.17 0.18 0.21 0.22 0.25 0.34 0.47 0.58 0.67 0.70 0.70 0.71 0.74 0.72 0.72 0.70 0.67 0.63 0.58 0.53 0.47 0.43 0.39 0.36 0.33 0.30 0.30 0.29 0.29 0.27 0.28 0.30 0.30 0.28 0.30 0.39 0.44 0.47 0.47 0.41 0.41 0.44
0.22 0.29 0.34 0.37 0.37 0.40 0.46 0.52 0.54 0.54 0.52 0.49 0.47 0.44 0.39 0.35 0.34 0.35 0.35 0.33 0.31 0.27 0.24 0.21 0.19 0.17 0.17 0.19 0.22 0.26 0.29 0.31 0.30 0.28 0.27 0.29 0.40 0.45 0.45 0.42 0.42 0.47 0.49
0.09 0.14 0.20 0.24 0.25 0.25 0.27 0.29 0.26 0.23 0.19 0.16 0.14 0.13 0.11 0.09 0.09 0.09 0.09 0.12 0.15 0.15 0.14 0.14 0.14 0.14 0.14 0.17 0.21 0.25 0.30 0.34 0.33 0.30 0.33 0.35 0.39 0.41 0.40 0.41 0.44 0.44 0.41
0.03 0.04 0.06 0.07 0.07 0.08 0.08 0.09 0.07 0.05 0.04 0.03 0.03 0.03 0.03 0.03 0.04 0.04 0.05 0.06 0.08 0.10 0.11 0.13 0.13 0.14 0.14 0.15 0.19 0.23 0.28 0.35 0.36 0.35 0.36 0.38 0.38 0.38 0.38 0.39 0.40 0.38 0.37
0.03 0.04 0.04 0.04 0.04 0.04 0.05 0.05 0.05 0.04 0.04 0.03 0.03 0.03 0.04 0.04 0.04 0.04 0.05 0.06 0.07 0.09 0.13 0.15 0.16 0.19 0.19 0.17 0.25 0.32 0.33 0.36 0.39 0.42 0.41 0.38 0.36 0.34 0.33 0.33 0.34 0.35 0.37
0.04 0.04 0.04 0.05 0.06 0.06 0.07 0.07 0.08 0.08 0.07 0.07 0.07 0.07 0.07 0.07 0.08 0.08 0.08 0.10 0.11 0.13 0.15 0.16 0.18 0.18 0.21 0.25 0.31 0.36 0.39 0.43 0.49 0.53 0.45 0.36 0.31 0.30 0.31 0.33 0.34 0.35 0.36

GEFSMW_prec_meanprecacc_162.txt.gz
Total_Precipitation_Accumulation
0.82 0.89 0.98 1.23 1.40 1.49 1.58 1.66 1.74 1.80 1.92 1.96 1.96 1.94 1.81 1.63 1.51 1.40 1.26 1.16 1.10 1.13 1.06 0.96 0.97 0.96 0.89 0.79 0.73 0.70 0.65 0.60 0.59 0.60 0.52 0.44 0.42 0.39 0.34 0.33 0.34 0.32 0.31
0.69 0.78 0.85 0.99 1.13 1.27 1.43 1.58 1.69 1.79 1.78 1.79 1.94 2.06 2.16 2.01 1.75 1.60 1.48 1.32 1.23 1.22 1.17 1.12 1.09 1.06 1.05 1.03 0.98 0.94 0.89 0.82 0.82 0.83 0.79 0.63 0.48 0.38 0.33 0.35 0.36 0.36 0.36
0.54 0.62 0.71 0.91 1.02 1.10 1.27 1.50 1.63 1.76 1.77 1.80 2.03 2.21 2.32 2.20 1.92 1.59 1.43 1.42 1.41 1.38 1.28 1.23 1.24 1.19 1.13 1.09 1.07 1.06 1.04 0.98 0.94 0.94 1.00 0.86 0.60 0.41 0.32 0.29 0.30 0.33 0.36
0.47 0.52 0.62 0.75 0.85 0.97 1.10 1.21 1.38 1.57 1.72 1.78 1.83 1.89 1.98 1.95 1.76 1.65 1.56 1.58 1.59 1.54 1.45 1.38 1.35 1.32 1.27 1.16 1.13 1.11 1.06 1.04 0.99 0.95 0.89 0.82 0.67 0.62 0.47 0.32 0.30 0.32 0.33
0.48 0.49 0.59 0.71 0.76 0.85 1.06 1.14 1.21 1.39 1.59 1.70 1.75 1.86 1.84 1.86 1.95 1.91 1.82 1.72 1.67 1.62 1.52 1.46 1.44 1.37 1.31 1.27 1.27 1.23 1.18 1.12 1.06 1.01 0.95 0.93 0.80 0.68 0.65 0.49 0.34 0.35 0.36
0.57 0.61 0.65 0.68 0.68 0.72 0.92 1.11 1.13 1.22 1.34 1.54 1.73 1.78 1.71 1.75 1.82 1.82 1.78 1.77 1.77 1.72 1.60 1.50 1.44 1.38 1.33 1.32 1.32 1.35 1.30 1.24 1.18 1.14 1.08 1.07 1.01 0.86 0.82 0.73 0.51 0.44 0.39
0.56 0.61 0.64 0.59 0.59 0.63 0.74 0.91 1.03 1.14 1.19 1.34 1.48 1.63 1.69 1.69 1.73 1.77 1.74 1.67 1.60 1.53 1.50 1.49 1.44 1.39 1.33 1.30 1.32 1.35 1.32 1.27 1.22 1.15 1.12 1.11 1.07 0.99 0.97 0.93 0.73 0.58 0.47
0.45 0.48 0.55 0.57 0.57 0.57 0.62 0.68 0.74 0.83 0.89 0.97 1.09 1.21 1.41 1.50 1.48 1.54 1.56 1.53 1.47 1.45 1.46 1.45 1.45 1.46 1.44 1.38 1.36 1.36 1.34 1.32 1.23 1.12 1.06 1.02 0.98 0.98 1.00 1.00 0.99 0.91 0.70
0.45 0.46 0.52 0.55 0.57 0.59 0.62 0.62 0.62 0.67 0.76 0.79 0.85 0.89 1.04 1.18 1.24 1.31 1.30 1.25 1.26 1.32 1.34 1.33 1.34 1.35 1.37 1.35 1.35 1.32 1.29 1.29 1.25 1.19 1.11 0.99 0.89 0.88 0.90 0.94 1.01 1.12 1.02
0.44 0.43 0.49 0.52 0.54 0.58 0.61 0.60 0.59 0.60 0.70 0.77 0.82 0.83 0.87 0.94 1.07 1.16 1.10 1.08 1.10 1.15 1.19 1.18 1.18 1.19 1.20 1.23 1.26 1.22 1.18 1.17 1.13 1.12 1.12 1.07 0.98 0.94 0.95 1.00 1.06 1.15 1.21
0.45 0.45 0.49 0.52 0.55 0.60 0.60 0.57 0.60 0.60 0.64 0.69 0.70 0.71 0.75 0.79 0.85 0.93 0.96 0.95 0.99 0.99 1.00 1.01 1.02 1.02 1.04 1.08 1.12 1.08 1.05 1.08 1.07 1.06 1.08 1.10 1.07 1.08 1.06 1.10 1.17 1.23 1.31
0.44 0.43 0.44 0.49 0.53 0.54 0.50 0.49 0.54 0.57 0.62 0.64 0.62 0.62 0.64 0.67 0.70 0.73 0.79 0.80 0.84 0.87 0.89 0.91 0.91 0.88 0.86 0.90 0.94 0.97 0.96 0.96 0.97 1.00 1.05 1.08 1.09 1.14 1.15 1.18 1.22 1.25 1.25
0.32 0.33 0.34 0.36 0.37 0.37 0.36 0.40 0.45 0.43 0.44 0.47 0.46 0.48 0.50 0.53 0.59 0.62 0.63 0.66 0.72 0.76 0.79 0.80 0.82 0.84 0.81 0.82 0.83 0.84 0.85 0.86 0.86 0.87 0.90 0.92 0.97 1.03 1.04 1.08 1.13 1.15 1.15
0.25 0.26 0.27 0.26 0.28 0.29 0.30 0.32 0.31 0.33 0.35 0.35 0.35 0.38 0.41 0.44 0.47 0.50 0.49 0.50 0.54 0.59 0.64 0.69 0.72 0.72 0.74 0.78 0.80 0.82 0.82 0.80 0.79 0.79 0.81 0.84 0.88 0.93 0.99 1.04 1.05 1.06 1.09
0.19 0.21 0.22 0.22 0.23 0.24 0.24 0.24 0.26 0.33 0.37 0.38 0.37 0.36 0.37 0.39 0.41 0.43 0.43 0.42 0.43 0.43 0.46 0.53 0.60 0.66 0.67 0.71 0.75 0.78 0.80 0.81 0.81 0.83 0.87 0.92 1.01 1.03 0.99 0.96 0.94 0.95 0.99
0.14 0.15 0.16 0.18 0.18 0.19 0.22 0.25 0.30 0.38 0.43 0.46 0.42 0.38 0.37 0.36 0.34 0.33 0.34 0.34 0.35 0.36 0.39 0.44 0.48 0.55 0.62 0.78 0.76 0.72 0.73 0.81 0.85 0.86 0.86 0.89 0.99 0.97 0.96 0.91 0.86 0.88 0.94
0.11 0.12 0.12 0.14 0.17 0.20 0.27 0.34 0.38 0.45 0.47 0.50 0.46 0.40 0.37 0.35 0.32 0.30 0.30 0.32 0.34 0.37 0.40 0.43 0.47 0.52 0.66 0.82 0.79 0.82 0.75 0.78 0.83 0.85 0.83 0.79 0.75 0.77 0.70 0.75 0.80 0.81 0.80
0.06 0.07 0.09 0.10 0.12 0.17 0.26 0.33 0.39 0.50 0.52 0.52 0.50 0.48 0.47 0.48 0.50 0.49 0.51 0.51 0.50 0.52 0.56 0.61 0.64 0.68 0.77 0.83 0.75 0.72 0.67 0.70 0.72 0.70 0.68 0.64 0.59 0.57 0.57 0.60 0.66 0.59 0.55
0.04 0.04 0.05 0.06 0.07 0.10 0.16 0.24 0.37 0.52 0.63 0.69 0.67 0.67 0.70 0.74 0.78 0.80 0.80 0.79 0.80 0.80 0.78 0.75 0.71 0.68 0.68 0.68 0.63 0.59 0.54 0.55 0.54 0.52 0.51 0.50 0.48 0.54 0.62 0.57 0.53 0.48 0.47
0.07 0.06 0.06 0.07 0.10 0.13 0.18 0.31 0.47 0.62 0.72 0.75 0.79 0.82 0.87 0.93 0.91 0.89 0.85 0.78 0.72 0.72 0.70 0.69 0.66 0.60 0.53 0.49 0.44 0.42 0.39 0.38 0.36 0.34 0.34 0.40 0.42 0.51 0.58 0.51 0.48 0.45 0.39
0.17 0.17 0.18 0.21 0.23 0.25 0.34 0.48 0.58 0.67 0.70 0.70 0.72 0.74 0.73 0.74 0.72 0.70 0.65 0.60 0.54 0.49 0.45 0.41 0.38 0.34 0.32 0.31 0.30 0.30 0.28 0.29 0.30 0.30 0.29 0.31 0.40 0.45 0.48 0.49 0.42 0.42 0.45
0.22 0.29 0.34 0.37 0.37 0.40 0.46 0.53 0.54 0.54 0.52 0.50 0.48 0.45 0.40 0.37 0.36 0.37 0.38 0.35 0.33 0.29 0.25 0.22 0.21 0.19 0.18 0.20 0.23 0.27 0.30 0.32 0.31 0.29 0.27 0.30 0.41 0.46 0.47 0.44 0.43 0.49 0.51
0.09 0.14 0.20 0.24 0.25 0.25 0.27 0.29 0.26 0.23 0.20 0.16 0.15 0.13 0.11 0.10 0.10 0.11 0.12 0.14 0.17 0.16 0.16 0.15 0.15 0.15 0.15 0.17 0.22 0.25 0.31 0.35 0.34 0.30 0.33 0.36 0.40 0.43 0.42 0.43 0.45 0.46 0.43
0.03 0.04 0.06 0.07 0.07 0.08 0.08 0.09 0.07 0.05 0.04 0.03 0.03 0.03 0.03 0.04 0.05 0.06 0.07 0.08 0.09 0.11 0.13 0.14 0.14 0.14 0.14 0.16 0.19 0.23 0.29 0.35 0.36 0.35 0.36 0.38 0.39 0.39 0.39 0.40 0.41 0.40 0.39
0.03 0.04 0.04 0.04 0.04 0.04 0.05 0.05 0.05 0.04 0.04 0.03 0.03 0.03 0.04 0.05 0.05 0.05 0.06 0.08 0.09 0.11 0.14 0.16 0.17 0.19 0.19 0.18 0.26 0.33 0.34 0.37 0.41 0.44 0.42 0.39 0.37 0.35 0.34 0.34 0.35 0.36 0.38
0.04 0.04 0.04 0.05 0.06 0.06 0.07 0.07 0.08 0.08 0.07 0.07 0.07 0.07 0.07 0.08 0.08 0.09 0.09 0.11 0.12 0.14 0.16 0.17 0.18 0.19 0.21 0.25 0.32 0.37 0.40 0.44 0.51 0.55 0.47 0.38 0.33 0.32 0.33 0.34 0.36 0.36 0.38